GFSWCAN_850_spd_078.txt.gz
Wind_Speed
29 25 24 24 26 26 27 26 17 8 14 8 19 21 21 21 16 5 12 9 3 7 9 5 4 3 3 4 4 4 3 3 3 3 2 1 2 2 2 2 3 4 4 2 2 2 6 3 1 3 2 4 5 4
28 23 21 22 23 24 22 21 13 5 13 11 5 16 18 17 11 5 6 9 10 7 10 15 15 12 9 6 5 7 2 2 3 4 1 2 1 1 3 2 1 1 4 3 6 4 1 2 2 3 4 7 5 3
25 22 19 20 21 21 20 16 8 3 12 11 2 12 20 16 13 5 6 10 14 16 10 6 9 9 6 5 6 2 3 3 2 3 5 2 2 3 3 4 2 2 2 1 1 1 2 3 3 4 4 3 3 4
22 19 17 19 19 18 16 13 2 2 8 13 4 8 13 13 11 8 3 6 6 5 5 4 6 6 6 4 3 3 3 5 7 3 3 2 2 2 2 1 2 3 4 3 4 4 3 10 9 6 3 2 3 5
22 16 15 14 18 17 14 9 3 6 3 8 7 9 7 8 9 14 5 3 4 2 5 4 7 6 7 6 5 6 8 6 3 3 3 1 2 2 1 1 3 6 5 4 4 4 3 2 6 7 5 5 7 8
20 16 15 14 12 15 14 10 6 8 7 3 11 8 7 9 12 12 2 2 2 4 4 2 2 2 5 6 5 7 7 5 4 3 3 2 2 1 2 3 3 6 6 7 2 4 3 1 4 6 6 6 8 10
18 15 16 14 13 12 14 12 10 13 10 4 12 10 11 15 17 4 1 2 7 2 2 3 3 2 4 4 4 6 6 5 3 4 2 2 1 1 1 3 3 8 5 4 3 3 2 3 3 5 7 8 11 13
17 14 13 12 12 10 11 10 6 11 11 8 9 12 13 16 14 2 4 9 7 0 2 3 1 1 3 2 3 3 3 3 4 3 2 1 2 1 3 5 6 9 7 4 3 3 3 3 4 5 8 11 15 16
16 13 13 10 10 8 6 5 7 10 9 8 10 13 9 8 5 3 4 12 3 0 4 3 4 3 5 3 3 3 2 2 1 2 0 1 1 4 5 8 12 13 7 3 4 4 4 5 7 9 12 14 17 18
16 13 13 10 9 8 7 7 15 9 11 11 15 6 5 8 3 10 5 5 3 3 2 3 6 2 5 2 2 3 2 2 1 1 1 2 3 6 7 7 8 10 9 6 5 5 5 9 12 14 14 16 17 19
15 14 14 12 12 10 11 12 19 15 13 19 6 3 6 14 9 3 3 2 1 2 4 5 5 4 6 3 2 1 2 1 2 2 2 2 3 3 8 8 11 10 8 7 6 7 10 13 15 16 16 17 19 20
17 15 14 14 16 13 16 17 24 19 16 8 4 7 11 6 3 3 2 1 2 4 7 8 7 5 6 4 4 3 2 2 2 4 3 3 3 4 12 11 10 9 7 6 8 11 14 15 15 15 15 15 17 21
19 16 16 17 18 18 21 21 28 20 20 5 4 5 5 4 3 6 7 4 3 10 12 10 4 6 5 3 5 3 3 2 5 2 3 4 3 7 14 12 10 9 8 10 12 15 17 17 15 15 16 16 21 25
18 16 17 18 19 22 25 24 31 24 16 3 4 4 5 3 5 5 4 4 6 8 23 20 7 4 4 3 3 4 2 3 2 0 5 3 9 9 13 12 10 8 10 13 16 18 19 18 18 17 19 20 25 29
17 17 16 17 18 24 26 26 30 30 9 5 4 5 6 5 2 5 6 9 8 24 30 11 6 4 1 3 2 4 3 3 5 4 3 4 7 9 11 10 9 10 13 16 18 19 20 21 22 24 23 26 29 33
16 17 20 19 22 27 25 27 35 27 8 5 6 3 2 0 2 6 10 8 21 35 14 4 3 3 1 4 3 5 7 6 4 3 6 7 7 6 6 6 8 12 15 18 19 21 23 24 26 29 31 33 33 33
17 22 22 21 26 27 30 32 23 10 10 6 5 7 11 8 4 8 12 15 32 23 3 4 4 6 3 2 2 3 5 3 7 10 11 8 7 5 4 8 11 13 16 19 22 23 25 26 27 29 31 30 27 25
24 22 20 23 31 32 28 28 15 9 7 10 3 3 10 7 5 8 10 25 23 9 7 4 9 3 5 6 3 4 6 10 13 14 11 8 3 4 6 9 13 16 17 19 22 26 29 28 28 27 26 26 27 27
22 25 22 27 43 35 11 12 10 8 8 5 6 6 5 4 8 9 14 32 10 8 7 6 3 3 3 5 5 16 19 16 16 13 8 4 3 4 8 12 13 16 20 24 26 26 25 23 22 23 24 23 22 23
27 28 27 39 43 12 7 6 11 6 7 7 7 9 4 2 7 12 30 21 9 7 3 2 4 4 6 11 17 19 18 15 13 11 6 4 3 6 10 13 18 22 24 25 24 22 21 23 23 24 24 22 22 24
33 32 42 35 25 6 5 8 8 7 8 6 10 9 4 8 8 11 14 13 7 4 2 4 9 14 19 19 19 18 15 10 8 5 3 2 5 8 13 17 20 21 23 21 20 21 21 23 23 24 24 25 24 24
31 41 30 32 4 6 4 7 8 12 7 10 10 7 5 4 5 7 10 7 5 4 6 14 24 25 24 21 19 14 11 7 3 1 1 4 8 13 16 18 21 20 19 19 19 20 20 21 24 24 24 24 23 20
40 33 13 8 4 3 4 17 4 4 4 6 5 4 2 3 8 9 5 5 5 9 17 26 25 22 20 20 18 14 8 3 1 1 4 8 12 15 15 16 17 17 17 16 15 17 19 21 22 22 21 19 18 17
34 22 9 8 5 4 11 5 6 6 5 3 3 2 2 5 8 4 3 4 7 20 29 30 27 25 22 19 15 11 6 3 2 4 8 11 13 13 13 13 14 14 14 14 15 16 17 19 19 19 19 18 16 18
11 9 7 4 6 6 4 4 3 3 4 4 4 3 3 7 2 3 4 6 20 29 32 29 26 22 22 21 15 10 6 4 3 6 9 12 12 12 11 11 11 12 12 14 15 17 19 18 18 17 17 18 18 19
5 8 10 7 4 6 7 6 7 6 5 4 3 7 6 2 3 6 4 20 29 38 38 36 31 25 21 15 12 8 6 4 5 8 10 10 11 11 11 11 10 11 14 16 18 19 19 18 18 17 17 16 16 18
6 5 9 9 7 9 6 5 7 4 5 6 5 4 4 4 7 4 10 28 33 39 34 29 23 21 19 16 11 8 5 3 6 9 9 9 9 10 11 12 11 12 14 16 17 18 19 18 18 18 18 16 16 17
5 12 8 14 10 5 6 5 5 6 4 8 11 6 8 8 5 8 10 26 27 33 31 27 23 18 14 12 9 6 2 4 7 6 6 7 8 9 11 12 12 14 16 17 17 17 17 17 16 16 17 17 16 15
5 8 15 2 4 3 1 5 4 6 15 18 6 4 4 5 10 12 21 28 35 36 35 32 28 21 17 12 8 3 2 5 4 4 3 4 6 7 9 10 10 12 12 11 12 14 14 15 15 16 15 16 15 15
4 12 3 3 2 3 2 5 10 17 15 14 12 7 5 7 12 21 29 35 38 35 31 26 22 18 14 10 6 2 3 3 3 3 1 3 4 5 6 7 8 9 10 11 11 11 12 12 12 12 12 12 12 12
10 7 3 6 3 2 10 19 20 19 12 10 10 7 9 8 12 28 36 36 33 31 28 25 22 17 12 8 4 2 3 3 2 0 1 3 4 5 5 7 8 9 10 12 13 14 14 14 13 13 13 12 12 12
7 8 5 4 3 11 12 5 5 4 6 7 5 5 9 7 8 24 33 33 31 26 23 21 18 16 12 6 2 3 3 3 3 2 1 2 3 3 3 5 6 8 10 12 13 14 14 14 13 13 13 13 14 14
5 8 11 9 6 5 4 5 3 5 6 5 4 6 5 6 7 16 30 31 26 24 22 19 17 13 9 5 2 4 3 3 3 2 1 1 1 2 2 4 6 7 8 10 11 12 13 13 13 13 13 13 13 14

GFSWCAN_850_spd_081.txt.gz
Wind_Speed
28 24 22 21 19 21 21 18 12 15 12 7 14 17 15 8 6 8 12 7 4 7 7 3 2 2 2 1 3 4 3 2 3 3 2 2 2 2 1 1 2 4 3 2 1 1 5 1 1 2 3 3 4 4
26 23 20 20 16 17 17 14 8 11 14 8 2 13 15 8 2 3 9 9 11 7 9 11 11 9 6 4 5 5 2 2 3 4 1 2 1 1 3 2 0 2 4 3 6 4 1 2 3 3 5 4 5 5
23 21 17 17 14 15 15 11 5 1 11 11 3 4 15 12 9 4 8 10 12 15 9 5 5 7 5 4 5 3 2 3 3 3 5 2 2 3 3 4 1 2 2 2 1 2 4 5 4 5 5 4 5 5
21 19 16 15 10 10 11 10 4 3 6 12 2 1 5 12 8 3 2 6 8 6 5 2 4 4 4 2 3 3 3 5 6 3 3 2 2 4 2 2 3 3 5 3 4 4 4 8 9 6 5 5 5 6
20 17 15 14 11 9 10 7 6 8 6 8 2 3 2 7 9 7 3 4 4 2 5 5 7 4 5 4 3 4 7 6 3 2 2 1 2 2 0 0 3 8 5 4 4 1 1 1 3 10 8 6 6 6
19 17 14 13 11 8 10 9 6 9 7 7 7 4 3 4 8 8 4 4 2 3 3 2 3 4 5 6 5 6 6 4 3 3 2 2 2 1 2 3 4 10 7 6 3 1 3 1 3 6 6 6 7 8
18 16 15 11 9 7 10 9 9 10 9 4 7 6 4 7 11 2 1 3 6 3 2 3 1 3 5 5 3 4 3 3 2 3 2 3 3 2 2 4 3 9 8 7 6 5 2 4 3 5 6 7 7 9
16 16 14 10 7 6 7 6 9 6 9 1 5 6 6 10 8 2 3 6 7 1 2 3 2 1 6 3 2 2 2 2 2 3 2 2 2 0 3 7 6 10 9 7 5 4 3 3 4 4 6 8 11 13
15 15 14 9 6 5 4 0 2 4 4 1 2 5 3 5 5 5 4 9 5 3 4 3 4 3 7 3 3 2 2 2 0 1 1 2 1 4 6 8 14 15 10 6 7 4 4 5 6 7 9 11 14 15
15 14 14 9 7 4 3 5 8 4 6 6 8 3 4 4 5 4 4 5 4 5 4 3 6 2 5 3 1 2 2 1 1 1 1 2 4 12 8 6 8 13 10 7 6 6 6 6 8 11 14 14 16 16
16 14 13 9 8 7 6 9 14 11 7 6 5 2 4 6 7 3 4 2 2 2 6 6 6 4 6 3 2 2 2 0 2 3 2 2 3 4 7 11 10 11 11 8 6 5 6 10 14 16 17 17 16 16
16 15 13 10 10 9 9 13 17 17 5 5 1 1 5 4 3 1 3 2 3 5 8 9 7 5 6 4 4 3 3 2 3 4 2 3 4 4 9 10 11 10 8 6 5 7 10 14 18 20 21 18 17 18
16 16 14 12 12 11 12 15 16 20 13 4 1 1 3 3 1 5 6 4 2 10 12 9 3 6 5 3 4 2 3 3 8 1 3 4 2 6 12 11 10 8 6 5 7 10 15 19 20 21 21 20 21 24
17 16 15 14 13 14 16 16 20 25 15 5 4 2 5 3 5 5 3 2 4 6 22 20 7 4 4 3 3 4 1 3 2 2 6 3 9 9 13 12 9 6 5 7 10 14 17 19 20 21 23 24 27 30
17 17 14 15 15 16 19 20 22 27 8 6 6 5 6 6 5 5 4 3 4 19 30 11 6 3 1 3 2 3 3 4 5 5 3 6 12 11 12 11 8 5 6 9 13 17 19 20 21 23 23 25 27 30
16 15 17 14 15 18 23 27 24 28 5 5 6 2 7 2 2 3 5 5 14 27 15 4 3 2 2 4 3 7 6 6 4 3 9 13 12 11 10 8 5 5 8 11 14 18 20 21 24 26 28 27 27 28
15 17 12 15 17 22 28 30 20 11 7 7 9 16 11 8 7 5 5 6 20 21 3 4 5 6 3 2 3 4 5 3 8 16 16 14 12 11 7 3 3 6 10 13 16 19 22 23 24 25 26 26 26 26
23 17 15 17 25 30 34 22 12 8 8 11 5 9 11 9 5 4 6 9 23 9 6 4 8 3 5 5 4 4 6 12 17 18 17 14 10 6 3 2 5 8 11 15 18 20 21 21 23 24 26 26 26 24
22 20 17 23 35 29 12 14 11 6 12 5 11 10 8 6 9 8 7 12 15 8 5 5 2 3 4 6 5 15 23 21 24 19 15 10 7 4 2 4 7 11 14 17 18 18 18 20 21 21 22 23 23 25
21 21 22 28 38 14 8 6 12 9 6 7 9 10 7 5 7 6 7 17 17 5 4 3 4 4 5 5 12 24 24 22 22 19 14 10 6 3 3 7 11 13 15 15 14 15 17 16 16 20 21 21 23 24
20 22 30 37 29 12 9 9 9 6 8 8 8 10 4 8 6 9 12 22 6 6 4 8 8 7 10 14 19 21 21 18 15 10 12 12 5 2 6 10 11 13 13 14 15 14 14 16 19 20 21 21 19 18
23 38 33 39 10 10 7 12 6 10 8 7 15 10 4 5 7 10 13 11 7 13 10 9 14 19 21 23 23 20 19 16 12 10 8 5 1 4 8 10 11 11 12 12 12 12 14 16 17 17 18 17 15 16
30 35 15 13 5 8 6 19 6 9 3 8 10 4 3 4 8 13 6 11 15 17 17 15 22 24 25 25 22 20 17 11 10 7 4 1 3 6 7 9 10 10 9 8 9 11 12 15 14 14 15 14 15 16
34 22 11 14 8 6 11 6 6 7 6 4 4 3 3 7 12 6 4 7 14 22 20 26 30 28 26 24 22 18 14 10 6 4 1 3 5 5 6 7 8 8 7 8 9 9 11 12 12 12 14 15 16 17
12 11 11 6 8 7 4 4 3 3 4 4 5 2 3 9 3 4 4 8 19 23 28 34 33 31 32 29 23 18 13 8 4 1 2 4 4 4 5 6 6 5 6 7 7 8 10 11 11 12 14 16 17 17
7 11 10 7 6 6 7 7 8 7 4 5 5 5 7 3 3 6 5 21 26 33 39 44 41 36 31 27 24 20 13 8 4 3 4 4 4 4 4 3 4 4 6 8 10 10 11 11 11 12 12 13 14 15
7 6 10 7 13 13 5 5 8 4 6 7 5 5 4 5 7 5 14 27 29 34 42 43 39 34 31 26 21 16 11 8 5 4 4 3 3 3 3 3 3 4 6 8 9 11 12 12 11 12 12 12 14 16
5 13 9 15 6 5 6 4 6 7 5 10 10 6 9 9 6 8 13 28 30 35 43 39 33 27 25 22 18 14 12 8 7 5 4 3 3 2 2 3 5 6 8 9 10 10 11 11 11 12 13 13 13 14
5 15 21 4 4 3 4 6 6 10 17 21 8 4 5 8 8 13 15 26 28 32 43 41 35 30 27 23 19 15 10 8 8 6 5 5 4 2 1 3 5 7 7 8 9 9 9 10 11 11 12 13 13 14
7 15 7 3 6 5 5 10 6 14 15 15 13 9 7 9 12 15 19 30 34 43 46 44 39 35 29 24 19 15 12 9 8 7 7 6 4 3 4 5 6 6 6 6 7 8 9 9 10 10 11 11 11 11
19 6 5 4 3 3 6 11 13 12 12 9 9 8 9 6 9 14 25 33 40 43 42 40 35 28 25 22 17 15 12 11 10 9 8 5 5 5 5 5 5 4 5 6 8 9 9 9 9 10 11 12 12 13
6 4 5 4 2 12 15 6 6 3 4 5 4 7 8 5 4 15 29 35 38 40 38 34 32 28 20 17 14 12 10 10 10 10 8 7 6 6 5 4 4 3 4 6 7 8 9 10 10 11 11 12 13 14
7 6 9 8 5 4 8 7 4 3 2 3 4 8 6 6 6 12 27 34 36 37 34 29 24 22 19 15 12 11 11 11 10 10 9 8 6 6 5 4 3 2 3 4 5 6 7 8 9 10 10 11 13 13

GFSWCAN_850_spd_084.txt.gz
Wind_Speed
25 24 22 19 17 13 15 9 9 12 8 3 6 6 2 6 12 12 7 3 4 6 6 5 4 2 2 0 1 4 2 1 1 1 1 1 1 1 2 1 1 2 1 1 1 2 1 3 2 3 3 2 5 5
23 21 19 18 14 11 10 7 3 6 10 8 6 6 6 4 9 11 5 6 8 4 7 10 8 6 4 3 3 3 1 1 1 2 2 2 2 2 1 2 2 3 2 1 3 1 2 3 2 2 3 2 4 5
22 17 17 17 14 9 7 6 1 3 5 8 13 8 11 8 5 8 5 4 4 8 6 5 4 4 3 3 4 2 2 3 2 3 3 1 2 2 2 3 2 3 3 3 3 3 6 5 6 6 6 5 6 6
21 15 15 15 13 11 7 7 5 6 7 7 9 4 7 9 7 5 5 1 4 5 3 2 4 3 2 3 4 3 3 4 4 3 1 1 2 3 1 1 3 1 6 3 4 5 3 8 9 6 7 6 5 5
21 15 13 14 13 11 8 8 7 6 5 6 4 5 2 3 6 9 6 3 1 2 4 3 5 3 3 4 4 5 5 5 3 1 1 1 2 2 0 2 4 9 5 5 3 4 1 2 3 11 9 7 6 6
20 15 12 12 11 11 7 8 8 6 6 5 4 3 4 2 5 6 3 6 3 1 1 2 4 6 4 4 5 6 6 4 2 1 1 2 2 1 2 3 4 10 10 7 2 5 5 4 3 6 7 7 7 8
19 15 13 11 9 8 8 9 8 8 8 6 4 5 5 3 6 3 2 5 4 3 2 2 1 3 6 4 4 4 4 2 2 1 1 2 2 2 2 5 3 10 12 11 9 6 4 6 3 7 7 7 7 9
18 16 12 11 7 7 6 7 7 6 7 5 2 4 6 5 9 3 6 5 5 4 3 2 0 1 7 3 2 3 2 2 1 2 2 2 2 2 5 9 5 9 10 9 10 9 5 5 6 5 5 7 9 12
18 17 13 10 7 5 5 3 3 6 5 3 2 3 1 3 5 4 8 6 7 4 3 2 3 3 9 4 3 2 3 2 2 2 3 3 3 6 6 7 12 15 12 9 12 8 6 5 5 6 7 10 14 16
19 18 14 10 8 7 5 6 6 4 2 3 7 2 1 2 3 2 2 2 4 5 6 3 5 3 6 3 2 2 0 1 2 2 3 3 4 17 13 8 9 15 13 11 12 7 7 7 6 7 11 14 17 19
19 18 14 11 10 9 8 11 13 7 2 3 3 1 1 3 2 2 1 2 2 3 5 3 6 4 6 2 3 4 2 1 2 2 2 3 4 3 7 16 10 15 15 11 7 5 4 5 8 12 15 18 19 20
20 18 15 13 12 11 11 13 14 13 3 3 1 2 3 3 2 2 1 3 3 3 1 3 4 4 6 4 3 3 2 1 3 4 2 3 4 7 9 15 15 14 14 10 7 5 5 8 12 16 20 21 20 22
21 19 16 16 15 14 14 13 16 16 9 5 2 2 1 2 3 4 4 2 2 3 6 4 2 4 5 3 4 2 4 3 5 2 4 4 3 9 13 14 15 14 11 8 6 6 9 13 16 18 20 21 22 25
23 19 18 17 18 17 16 14 19 20 11 6 4 4 4 4 5 5 3 2 2 4 10 11 2 2 3 3 2 3 2 3 3 3 6 2 14 15 17 16 14 12 9 7 6 9 12 15 17 18 19 21 23 25
24 21 20 19 22 20 18 18 19 22 10 5 5 5 6 6 4 4 4 4 5 6 17 6 1 2 1 2 2 3 4 5 6 5 2 8 18 18 20 17 13 11 8 6 8 11 13 16 18 20 22 23 24 24
24 21 25 20 23 23 19 23 22 24 6 6 7 3 6 0 3 5 8 8 7 16 14 3 1 2 5 3 4 8 5 6 3 3 8 18 19 18 18 15 12 8 5 7 9 12 15 17 19 21 22 21 22 22
27 30 22 23 25 24 26 30 22 12 9 7 8 15 9 2 4 5 5 6 12 18 3 3 4 4 2 2 4 5 5 2 4 12 18 18 18 18 16 13 9 6 4 7 10 14 16 17 17 19 20 19 20 20
33 24 23 28 27 29 38 19 14 9 10 12 5 11 15 12 6 6 6 10 14 11 4 3 4 3 4 4 4 3 7 5 14 18 19 18 17 15 11 8 6 4 5 9 12 13 14 15 17 17 18 19 19 19
29 25 29 32 36 29 11 14 11 7 15 8 13 10 11 8 13 10 8 13 15 11 3 3 2 3 4 7 5 7 16 19 23 22 19 17 13 11 9 7 4 4 7 9 10 11 12 13 13 15 16 16 15 16
25 26 30 30 35 13 9 7 14 8 7 10 11 14 10 7 12 15 16 18 21 8 6 4 5 6 5 15 15 12 23 24 26 24 19 16 13 11 8 5 4 5 7 8 9 10 9 9 10 11 12 12 13 15
31 32 24 37 28 16 9 9 9 6 6 10 12 14 7 9 9 14 16 21 14 11 6 20 25 27 23 20 14 14 22 24 22 15 20 19 15 11 8 5 4 5 6 7 7 7 8 9 10 10 11 11 12 13
35 36 31 37 9 12 11 12 5 10 7 4 11 11 6 6 8 11 13 14 9 12 18 24 25 25 22 17 15 20 19 20 17 12 14 13 14 11 8 5 5 4 5 5 6 6 7 8 9 9 10 10 11 13
31 35 12 11 6 11 5 18 8 12 4 7 9 4 3 5 8 14 7 10 12 20 24 29 30 27 17 19 21 22 21 18 16 15 13 12 10 7 6 5 4 4 4 4 5 6 6 8 8 8 9 11 12 12
25 21 10 10 10 6 10 8 7 9 6 4 4 4 4 7 12 6 4 7 22 18 26 31 29 25 24 26 27 26 23 19 16 14 12 9 7 7 6 5 3 3 3 3 4 6 6 7 7 8 9 10 11 12
9 11 10 7 8 6 5 6 5 4 5 5 6 3 4 9 4 5 4 7 24 29 31 34 31 33 37 35 30 27 24 20 17 13 11 9 8 9 7 5 3 3 2 3 4 5 6 6 7 7 9 10 11 11
7 13 14 12 8 7 8 7 8 6 4 4 7 6 7 4 4 7 5 20 29 32 37 40 41 39 39 38 36 34 28 22 17 13 10 9 9 8 6 5 5 4 2 3 4 4 4 5 6 7 8 9 10 10
7 6 8 9 11 10 6 4 7 4 6 7 5 5 4 6 8 4 10 20 27 34 36 40 42 44 45 40 34 29 24 20 17 13 9 11 10 8 6 5 4 3 2 4 3 3 4 5 6 7 7 9 10 10
5 12 8 14 8 10 6 4 6 8 5 8 11 6 9 9 7 9 11 24 27 24 31 37 41 43 42 36 33 32 27 23 18 14 13 13 11 9 7 5 4 3 3 2 1 1 3 5 6 6 7 8 8 9
7 13 18 4 3 6 6 6 7 14 18 20 8 7 6 11 18 16 19 21 22 25 29 34 38 39 36 34 32 28 24 21 18 17 16 14 13 11 9 7 5 4 3 2 3 3 4 4 5 6 7 8 9 9
11 27 5 4 7 6 9 13 15 22 24 19 18 13 11 14 19 23 20 18 20 24 27 32 40 44 43 41 37 31 26 20 17 15 15 14 12 9 9 8 6 5 4 3 3 3 4 5 6 6 7 8 8 8
24 14 4 3 5 8 8 16 15 18 19 19 19 14 13 12 16 18 20 18 16 21 29 36 44 43 41 39 35 31 26 21 19 17 14 12 10 10 9 8 7 6 4 3 2 2 3 3 3 4 6 6 7 8
12 9 5 4 2 9 13 8 9 8 8 8 9 11 7 7 6 10 14 17 21 26 30 38 44 43 37 29 24 20 16 16 17 16 15 13 12 11 10 9 8 7 5 4 2 1 2 2 3 4 5 6 7 8
5 5 6 7 4 3 8 8 5 2 3 5 6 7 7 5 6 8 9 19 24 27 35 41 39 34 30 26 23 19 15 16 17 16 16 14 12 11 10 10 8 7 5 3 2 1 0 1 1 2 3 4 5 6

GFSWCAN_850_spd_087.txt.gz
Wind_Speed
17 21 22 17 14 15 8 1 2 7 7 5 5 7 8 11 17 15 9 5 1 3 4 4 4 1 2 1 2 4 3 4 2 2 2 1 2 1 3 1 3 3 2 2 1 3 2 5 4 3 3 1 0 1
14 19 22 17 14 12 11 5 3 3 4 8 8 6 8 13 11 14 13 9 5 2 5 5 5 6 6 4 2 3 3 1 2 2 2 1 3 2 2 2 2 3 2 3 3 2 2 5 2 0 1 1 2 3
13 17 20 17 15 12 11 6 6 5 5 5 10 8 8 10 8 10 11 11 8 3 2 2 2 3 3 5 5 2 1 1 1 1 3 2 4 1 3 2 2 3 3 3 3 5 7 7 5 4 4 3 3 2
13 16 17 15 15 13 12 8 7 8 8 4 6 6 6 11 10 8 7 10 6 2 3 3 6 6 4 5 6 6 3 3 2 1 2 2 3 1 2 3 3 3 7 5 7 9 4 10 9 5 5 5 5 6
14 17 17 13 14 13 13 9 8 7 6 4 3 4 5 6 9 6 4 7 7 2 3 3 5 8 6 6 6 6 5 4 3 3 3 2 0 2 2 2 7 9 8 5 4 4 3 3 3 7 7 6 7 7
14 16 18 14 13 12 11 10 8 7 7 6 4 2 2 3 4 4 2 3 4 4 3 2 4 5 6 4 4 5 7 5 3 3 2 2 3 2 3 3 6 11 9 8 3 4 2 3 3 5 7 8 8 8
16 16 18 14 11 11 12 8 7 7 8 7 6 3 2 2 3 5 4 2 4 2 1 4 2 4 6 4 3 3 4 4 3 2 4 3 4 3 3 7 8 10 10 9 9 6 3 6 3 5 6 7 8 10
18 17 17 15 12 11 10 6 6 7 8 8 4 3 3 1 4 5 4 3 1 2 2 1 2 2 4 2 3 3 2 3 3 3 2 3 2 5 5 13 4 8 10 10 10 10 7 5 5 6 6 8 10 12
20 18 17 15 12 12 9 5 3 4 5 4 3 5 3 2 2 6 5 5 4 5 3 3 2 1 4 1 2 2 3 3 3 3 3 3 4 7 7 8 12 14 12 9 12 9 7 6 5 6 7 9 12 15
22 20 18 16 13 13 10 9 8 5 1 2 6 2 2 3 4 3 2 1 2 4 5 4 3 2 5 3 2 2 2 2 2 1 1 4 6 22 14 10 9 14 14 12 14 9 9 8 7 7 9 11 14 19
24 23 20 17 14 15 13 14 13 8 4 3 3 3 2 3 5 2 4 3 3 3 5 3 6 3 5 3 3 3 1 1 3 2 2 3 4 5 10 16 13 14 15 12 9 6 5 5 6 7 11 14 19 22
27 24 20 18 17 18 17 18 17 13 5 3 2 2 3 2 2 1 2 2 4 1 2 2 4 2 3 3 3 2 2 1 4 4 2 4 3 6 10 13 14 14 15 14 9 7 6 6 8 11 14 18 20 23
29 27 22 20 19 20 19 19 20 16 8 3 3 2 2 2 2 5 5 3 3 6 7 4 2 3 2 2 1 2 3 4 1 3 4 5 4 8 12 15 16 15 15 12 10 7 7 8 11 13 16 18 20 23
32 29 25 22 22 22 21 19 23 20 10 4 4 3 5 4 5 5 2 2 3 4 9 10 4 2 2 3 2 3 1 2 3 4 6 2 11 13 15 17 18 17 14 12 9 7 8 10 12 14 16 19 21 22
36 31 26 25 25 25 23 21 24 22 10 4 4 5 7 6 4 4 7 3 4 6 10 8 4 4 2 2 3 1 2 5 6 5 2 1 15 19 19 18 17 15 13 10 7 8 10 12 14 16 17 18 19 20
38 30 31 28 29 29 25 22 22 22 4 4 8 4 5 3 5 6 9 6 8 9 7 2 3 3 5 3 4 7 3 6 3 3 5 7 17 20 19 17 15 13 11 8 7 9 10 13 13 14 15 16 16 17
41 36 36 32 32 32 28 25 18 10 8 7 7 13 9 5 4 7 9 7 14 15 3 3 6 5 3 3 4 5 5 3 7 8 7 13 17 18 18 16 13 11 8 6 8 9 11 11 12 13 12 13 14 13
48 42 32 35 38 32 31 22 13 9 10 13 6 10 12 10 6 6 10 14 14 12 9 4 3 4 5 5 4 3 8 15 11 7 10 14 16 16 15 13 12 9 7 7 9 10 9 10 10 10 11 12 11 11
49 37 34 42 45 34 15 13 12 7 15 6 14 14 13 10 18 15 14 18 13 12 7 8 4 5 5 7 7 7 12 11 8 10 12 14 15 15 14 12 10 8 7 8 9 8 8 8 8 8 9 10 9 11
46 34 39 48 49 17 8 7 14 11 6 7 10 10 12 7 15 18 17 18 20 8 6 5 6 9 11 15 12 14 17 12 16 16 16 17 17 15 13 11 9 7 8 8 8 7 6 7 7 7 7 8 9 10
34 36 42 46 41 13 8 9 9 7 7 9 8 14 6 10 10 11 12 19 12 7 5 15 19 29 28 28 25 19 19 16 24 24 21 22 20 17 14 12 9 9 9 8 8 8 6 6 7 6 6 8 9 11
39 46 39 40 16 14 10 13 6 9 7 3 6 8 4 5 7 9 13 14 11 22 23 26 30 34 36 34 31 23 21 18 24 23 14 17 20 19 17 13 11 10 10 9 8 8 7 6 7 7 7 8 10 11
45 39 17 13 6 11 6 18 9 11 5 7 7 4 4 5 6 14 7 12 18 31 33 37 36 33 33 29 24 21 20 23 26 24 17 16 16 16 14 12 12 11 10 9 8 7 6 6 6 7 8 9 10 11
31 24 8 12 13 7 11 8 8 9 7 6 6 4 4 6 9 6 5 9 27 26 28 37 38 35 31 27 26 24 26 28 26 22 19 19 18 16 14 12 12 11 10 8 8 7 7 7 7 8 8 9 10 12
11 11 8 7 10 7 7 7 6 5 5 5 6 4 4 7 5 5 4 6 20 30 36 37 36 39 39 32 32 30 29 31 30 26 22 20 17 16 14 13 13 12 10 9 7 7 7 7 8 8 8 9 10 11
7 10 14 12 10 7 8 7 10 6 5 5 7 4 7 4 5 7 4 14 31 36 37 39 41 41 41 39 34 33 36 34 30 25 22 19 16 14 12 12 14 13 11 9 8 7 7 7 7 7 7 8 9 10
7 7 7 10 11 11 6 5 8 4 7 8 6 7 5 5 7 5 14 24 31 32 30 36 38 39 40 38 36 33 36 35 32 26 18 18 17 15 14 13 13 11 9 9 8 7 7 7 6 5 6 7 8 9
5 11 8 13 7 10 5 5 7 9 5 9 12 7 10 9 7 14 14 14 15 23 27 21 22 30 34 35 34 33 37 36 31 25 21 18 17 16 15 14 12 10 10 9 8 7 6 5 5 4 4 5 7 8
6 13 15 5 4 5 6 7 8 13 17 18 9 8 6 16 28 26 23 21 20 20 19 18 20 24 29 29 27 34 39 39 36 29 25 23 21 19 17 15 12 11 10 8 7 6 5 3 2 2 3 4 5 7
8 23 5 5 7 8 11 17 13 23 23 26 29 27 29 34 33 31 28 26 25 23 18 17 22 23 28 30 33 38 38 35 31 25 22 20 17 15 16 14 13 12 11 9 8 6 4 2 0 1 2 4 5 6
19 17 6 6 4 8 17 21 19 21 26 24 30 21 21 20 27 26 27 27 25 21 19 17 22 24 27 34 41 43 41 36 31 26 21 16 17 16 15 16 14 13 12 10 8 6 4 2 0 1 2 3 4 4
12 12 7 5 3 7 12 11 9 9 8 8 10 13 14 8 9 20 23 23 24 23 22 21 22 24 27 34 40 39 33 31 29 24 19 17 17 16 16 16 15 14 12 9 7 6 4 3 2 2 1 1 2 3
5 6 5 6 4 5 9 8 7 4 5 5 7 8 10 8 7 13 20 20 22 23 22 21 17 21 28 31 36 35 27 22 22 20 18 18 16 16 17 16 15 13 11 9 8 6 5 4 4 3 3 3 4 4

GFSWCAN_850_spd_090.txt.gz
Wind_Speed
17 16 15 16 15 16 13 10 7 6 5 6 7 6 4 6 9 11 11 9 3 2 2 2 1 1 3 4 2 1 0 2 2 2 0 1 2 0 3 2 2 1 1 3 1 1 5 5 1 2 1 1 1 1
17 15 15 15 15 14 13 13 9 8 9 8 8 8 9 5 5 8 8 9 4 2 2 2 2 1 2 2 1 2 2 3 4 2 1 2 2 1 2 3 1 2 3 2 2 3 2 8 2 3 2 1 2 2
18 15 16 14 15 13 13 13 12 9 9 9 8 10 7 7 3 5 7 6 4 4 3 1 3 3 3 3 3 1 1 3 2 2 3 2 3 2 2 4 1 4 3 3 3 1 5 7 7 6 5 4 6 5
19 17 16 15 15 15 13 12 13 10 8 8 7 8 7 5 4 5 4 4 2 2 1 3 4 8 7 6 5 6 5 3 5 3 2 2 2 0 3 2 2 3 6 4 5 8 5 11 9 6 8 6 6 5
21 18 16 15 15 15 14 12 12 11 8 6 6 7 4 5 3 4 5 3 1 1 4 2 9 10 11 9 7 7 7 4 2 3 2 3 2 1 3 2 4 10 6 4 5 1 4 5 7 9 8 6 5 6
23 19 17 16 14 14 15 12 11 10 8 7 6 6 4 3 3 2 4 2 2 2 2 2 3 5 7 8 8 7 7 6 4 4 4 3 3 2 3 4 8 11 19 15 4 8 5 5 5 6 6 6 7 7
25 20 18 17 15 14 14 12 11 9 8 7 6 5 4 4 3 4 3 3 2 3 2 2 2 3 3 5 4 4 5 5 5 4 4 3 5 5 3 7 5 13 18 17 14 9 4 6 4 4 6 6 6 7
27 23 18 17 16 15 14 11 10 9 9 7 6 6 4 4 4 7 7 4 3 4 3 2 2 2 3 3 3 3 3 4 6 4 3 3 3 5 5 12 15 15 16 14 12 11 6 5 7 5 4 5 5 8
29 24 20 19 18 15 14 10 6 2 3 6 4 4 3 3 3 5 8 8 7 5 4 2 3 2 5 3 3 2 4 2 4 3 4 3 3 6 8 11 15 18 13 11 15 13 9 7 6 5 4 5 7 10
32 27 23 21 19 16 15 11 9 6 2 4 6 3 1 3 6 5 3 2 3 4 4 2 1 1 4 4 4 0 2 2 1 2 2 3 5 26 30 20 13 15 16 15 18 13 12 10 8 5 4 6 9 13
34 29 26 25 21 18 17 14 14 11 5 4 4 3 3 4 2 2 2 2 2 3 4 2 3 1 3 0 2 3 1 1 2 2 0 3 4 4 10 23 17 15 17 13 10 7 9 7 7 6 5 8 12 15
36 31 28 27 23 20 19 18 19 16 6 3 2 2 1 2 1 1 2 1 3 3 5 4 5 3 4 3 2 2 1 2 4 2 2 4 3 3 3 13 13 15 16 16 11 10 8 6 4 4 7 11 14 17
39 34 32 30 25 22 22 21 22 17 8 3 3 2 2 3 1 5 5 3 2 6 8 6 2 4 3 3 2 0 2 4 1 1 4 5 2 2 8 10 15 14 15 14 12 9 6 3 4 7 10 13 16 17
41 37 35 33 27 24 24 23 24 19 9 4 4 2 5 4 5 4 2 3 4 5 11 10 5 3 2 1 2 2 3 1 1 3 6 2 10 7 9 13 16 17 16 13 10 7 4 4 7 10 12 15 16 16
43 38 36 35 29 26 27 24 26 25 9 6 5 6 6 9 3 4 6 5 6 10 13 5 2 4 2 1 2 1 1 4 5 5 3 8 7 9 11 15 15 16 15 13 9 6 4 6 8 12 13 13 13 13
42 37 44 39 31 29 29 26 27 20 7 7 8 5 7 1 5 8 10 9 10 14 10 4 3 2 5 3 3 8 3 6 3 3 9 13 6 9 11 13 14 13 12 9 7 6 6 7 10 11 12 11 10 12
44 43 47 41 34 34 33 29 21 11 8 7 7 17 10 4 6 9 16 12 15 18 3 4 5 10 1 2 4 5 5 3 5 12 15 9 10 13 14 14 13 13 11 9 6 7 8 9 9 10 9 9 10 9
53 49 47 44 42 39 37 19 15 10 10 14 6 13 15 12 7 8 12 16 18 13 8 5 5 3 5 5 4 4 12 10 14 13 11 9 13 15 16 15 14 13 10 8 8 9 9 8 9 8 8 8 9 8
52 49 49 51 53 39 19 15 12 8 16 7 17 11 15 11 20 18 15 16 17 14 5 6 4 4 4 7 9 10 12 8 9 9 8 11 14 15 17 17 15 12 10 9 10 9 8 8 8 7 7 8 9 9
49 48 51 54 55 17 11 9 15 9 7 10 11 14 13 10 16 21 20 21 26 10 7 5 6 13 9 18 22 26 19 13 13 12 13 16 18 18 18 17 15 13 11 11 10 9 9 9 7 7 8 9 9 8
42 51 53 58 41 10 10 10 12 8 8 12 11 15 7 11 13 14 18 22 16 8 4 26 32 33 31 30 30 28 26 27 23 24 24 22 24 23 21 19 17 15 12 12 11 10 9 8 8 8 9 10 9 9
39 58 52 39 16 12 7 14 8 12 11 6 11 12 5 5 7 12 14 15 12 27 27 30 33 34 37 42 43 39 37 32 24 24 24 23 27 27 26 23 20 16 14 12 12 10 9 8 8 9 9 9 10 10
57 45 34 17 7 13 5 20 9 14 5 7 11 5 4 5 6 16 7 11 18 36 33 39 44 41 40 40 39 38 36 33 31 29 26 26 24 24 23 21 19 17 15 13 12 11 9 8 8 9 9 9 9 9
44 20 9 17 11 6 12 8 7 9 8 5 5 4 4 7 12 5 5 8 29 25 26 35 36 39 40 42 44 44 39 33 28 26 26 28 26 25 23 20 17 17 15 13 12 10 9 9 8 8 9 9 9 9
11 10 11 7 12 7 5 6 4 4 4 4 5 3 3 8 3 4 4 6 22 32 36 35 35 38 41 41 37 34 32 32 30 24 27 30 26 25 24 20 18 17 14 14 12 10 9 9 8 8 8 9 9 8
6 9 14 11 7 7 8 7 9 6 5 4 6 7 7 3 4 7 4 11 25 27 28 30 33 33 34 36 35 35 31 27 30 30 31 32 28 27 23 21 19 18 16 13 11 10 9 8 8 7 7 8 8 8
7 6 11 8 13 14 5 5 11 4 6 7 5 5 4 5 7 5 11 19 24 26 29 30 28 28 27 26 25 30 27 25 28 34 29 28 26 23 21 18 17 16 13 12 11 10 9 8 7 7 6 6 6 7
6 10 9 12 7 9 6 5 6 7 6 10 14 7 10 10 7 10 9 9 11 12 14 16 18 19 19 20 23 24 25 23 26 31 28 25 26 25 21 18 17 16 13 12 11 9 9 7 7 6 6 4 4 5
4 14 18 4 5 5 5 6 7 11 16 18 9 6 6 10 11 16 16 14 15 17 17 15 15 15 17 19 19 20 19 24 33 36 35 32 28 27 24 20 18 16 14 13 11 10 8 7 6 6 4 2 2 4
7 20 6 4 6 5 9 15 10 17 21 19 20 15 19 22 25 27 30 29 26 23 21 19 18 18 18 18 17 20 20 25 34 41 40 35 30 22 19 20 18 17 15 13 12 10 9 8 6 5 3 1 1 2
24 8 5 4 4 7 10 18 11 15 22 21 26 25 26 20 24 28 32 33 29 27 26 27 25 22 19 19 20 22 23 29 38 39 35 24 17 17 17 19 18 17 16 14 12 11 10 8 7 5 3 1 0 1
12 7 5 4 2 6 11 14 10 8 7 7 8 13 13 10 10 27 29 26 25 26 27 26 27 27 24 21 20 17 19 25 39 39 31 23 18 17 17 19 19 18 16 15 13 12 10 8 7 6 4 2 2 2
6 5 6 7 4 4 9 7 5 2 5 5 7 9 11 8 8 19 23 24 24 22 23 24 25 23 20 19 19 16 16 18 33 32 25 19 16 15 17 19 19 18 16 15 13 11 9 8 7 6 4 4 4 5

GFSWCAN_850_spd_093.txt.gz
Wind_Speed
19 18 20 19 16 16 13 11 10 9 10 10 8 8 7 6 6 7 7 5 3 4 5 7 3 4 2 1 1 5 3 3 4 2 1 2 2 3 2 4 3 4 3 3 2 1 5 7 4 5 4 6 6 5
20 18 19 20 16 16 14 12 10 10 10 12 10 8 9 7 6 6 6 7 2 3 2 8 7 5 4 3 3 1 1 1 2 1 1 2 2 1 3 3 1 3 5 3 6 5 4 12 5 8 9 8 8 8
23 19 19 19 18 15 15 14 12 11 9 9 9 7 9 6 7 7 6 8 5 4 4 7 7 8 6 5 4 4 2 1 1 2 2 2 3 3 2 5 3 3 4 3 2 2 6 11 10 9 8 7 7 6
25 20 21 20 19 16 16 15 13 11 9 7 8 7 7 6 6 8 4 6 6 4 3 3 7 9 9 8 7 8 7 4 4 3 3 2 2 3 3 4 3 6 5 4 5 7 7 11 14 12 10 8 8 7
26 22 21 22 20 17 16 15 14 12 10 6 7 6 7 6 4 6 5 3 5 4 4 5 8 11 11 10 9 9 8 6 3 2 2 3 4 2 3 1 4 10 8 5 5 9 6 2 10 10 9 8 6 5
26 23 22 22 21 18 16 16 14 12 11 6 7 7 6 6 5 2 2 4 4 6 4 3 4 5 6 8 8 8 9 7 5 3 5 5 4 3 3 3 9 16 20 24 12 11 8 7 8 8 8 6 5 4
27 24 24 24 23 19 17 15 14 12 11 8 8 8 6 5 4 3 1 2 4 3 2 6 5 2 3 5 5 6 7 6 7 5 5 4 4 5 3 12 8 19 20 20 21 15 7 10 6 8 7 6 4 3
26 25 25 26 23 20 18 16 14 12 10 9 9 7 6 6 6 7 9 5 4 4 3 0 4 4 2 2 2 3 3 5 7 5 4 4 2 3 5 13 26 26 27 19 17 16 12 7 9 8 7 5 3 2
29 28 27 28 24 20 18 16 13 8 6 6 7 6 5 5 5 4 5 8 8 5 2 2 3 3 1 2 2 2 3 1 2 3 3 4 3 7 9 16 19 16 11 15 16 12 10 8 9 8 6 4 3 3
31 27 29 31 27 22 19 16 13 9 7 6 6 3 4 3 4 4 2 2 2 4 5 5 4 1 3 1 2 1 2 2 1 3 2 3 5 21 27 28 24 14 19 15 17 14 14 13 12 9 6 5 4 6
33 30 32 33 30 25 21 17 16 15 10 9 6 4 4 3 2 2 2 2 4 2 5 5 6 2 4 1 3 2 2 0 1 3 2 3 4 4 12 16 14 25 17 14 10 7 11 9 12 10 7 5 6 9
34 33 36 36 32 29 25 20 20 20 9 8 5 5 3 3 3 3 2 2 3 5 6 5 5 5 3 4 2 2 2 1 5 3 1 4 4 11 11 5 3 12 14 15 11 9 11 10 10 7 6 6 8 10
36 34 39 38 36 32 28 23 23 20 12 8 5 5 5 5 2 6 6 4 2 7 9 7 2 4 3 4 2 2 2 4 1 1 4 4 10 15 8 3 7 9 11 13 13 12 10 8 6 5 5 6 8 9
38 36 41 41 38 35 32 25 26 25 12 6 7 4 5 4 5 5 4 5 6 7 16 13 7 3 3 1 2 2 3 2 2 2 6 3 9 14 5 7 9 13 13 13 12 10 8 5 4 4 6 8 9 9
41 38 41 44 41 39 34 28 30 28 9 7 7 6 7 10 4 9 10 10 9 16 20 8 4 4 1 1 2 2 3 4 6 5 3 5 14 12 6 10 12 14 16 15 12 10 7 5 6 7 8 8 9 8
43 38 44 46 42 41 35 33 34 32 7 7 8 5 6 2 5 10 14 12 18 21 13 6 4 3 4 4 3 7 5 7 4 4 8 15 18 8 7 11 13 13 14 13 12 9 7 7 7 8 8 8 8 7
42 46 51 48 44 43 39 37 30 16 11 8 8 19 12 3 8 17 19 16 21 22 3 5 6 10 1 1 3 5 6 4 6 5 10 11 10 8 9 12 14 16 15 13 12 10 8 8 7 7 8 7 7 6
52 51 47 51 47 43 43 21 20 12 11 11 6 14 20 13 7 12 16 21 23 15 12 6 7 3 6 6 4 4 17 15 12 9 10 10 9 8 11 14 16 16 16 15 12 11 10 8 8 8 7 7 6 5
50 51 52 49 55 42 19 18 14 8 14 7 15 13 17 13 22 17 16 20 25 18 8 9 4 5 5 8 9 13 14 12 11 11 11 12 10 9 13 16 17 18 17 15 14 12 11 10 10 9 7 7 6 6
51 50 50 52 61 15 11 9 17 8 8 12 11 16 14 12 18 24 22 25 29 11 8 5 7 10 10 19 21 20 17 15 14 15 16 16 15 14 16 19 20 19 19 17 16 14 12 12 12 9 8 8 7 6
44 50 51 63 40 16 12 11 11 9 11 11 13 17 8 11 15 19 26 26 17 8 4 27 33 34 33 33 32 32 33 31 30 27 24 21 19 18 19 21 21 21 21 19 18 15 13 12 12 10 9 8 8 7
41 67 50 43 13 11 8 15 10 14 11 6 15 15 6 5 7 13 15 17 10 32 29 29 34 39 39 40 42 43 42 39 37 35 35 29 25 24 23 27 28 26 23 21 18 17 13 13 12 11 10 9 8 8
57 45 34 13 6 10 7 22 8 14 5 8 13 6 4 6 9 17 7 11 18 38 38 35 45 44 42 40 40 41 39 38 37 35 33 32 29 28 24 25 29 26 23 20 18 17 14 13 13 12 10 9 8 7
44 20 9 15 9 6 12 10 11 11 8 6 7 4 4 7 17 7 4 8 25 26 24 30 35 38 36 35 40 41 39 38 35 33 32 30 30 29 25 23 24 24 21 16 17 16 16 14 13 12 10 9 8 7
10 9 11 6 12 7 6 6 6 4 5 5 6 3 4 10 4 5 5 5 19 27 30 34 35 34 34 34 35 33 30 30 30 32 31 30 29 27 26 25 23 23 21 20 18 17 16 15 14 12 11 10 8 7
6 10 14 14 7 7 9 7 9 6 5 5 6 8 9 4 4 7 4 11 25 27 26 22 20 23 27 27 30 28 27 24 22 25 25 27 29 28 27 29 26 26 21 19 18 16 15 14 13 12 11 10 8 6
7 7 12 9 14 13 5 4 11 4 7 7 6 5 5 6 8 5 10 14 21 16 13 12 15 17 16 16 17 17 18 16 16 20 20 20 24 26 25 26 22 19 15 15 17 15 14 13 12 11 10 9 7 5
6 12 9 11 7 7 6 4 6 8 6 11 11 7 11 10 7 8 9 12 16 11 10 10 11 12 12 13 14 15 14 14 14 19 21 18 16 20 24 23 20 18 16 15 14 15 14 13 11 10 9 8 6 5
5 16 17 5 4 5 6 6 7 11 17 20 8 6 5 10 10 8 11 12 12 11 11 13 12 11 13 15 16 16 15 17 19 26 27 24 24 28 28 25 24 20 16 14 14 15 14 12 10 9 9 7 6 5
7 22 5 4 6 6 5 13 12 22 22 22 18 9 10 14 17 21 23 22 20 19 19 17 16 17 17 18 18 17 17 19 21 26 29 29 30 28 28 28 24 21 18 17 17 16 15 14 12 10 9 8 6 5
25 8 5 3 4 4 12 16 18 23 23 21 21 15 13 15 21 25 28 28 26 26 26 26 26 24 24 24 23 21 18 20 23 26 28 26 20 26 25 24 21 21 20 18 18 16 14 13 12 11 10 8 7 5
9 5 5 4 1 9 16 8 10 8 10 9 7 14 17 11 9 21 25 26 27 30 31 29 27 26 23 22 20 19 18 15 16 24 26 22 20 20 23 20 22 22 20 19 19 17 15 13 12 11 10 8 7 6
5 5 7 7 3 3 7 7 4 2 3 4 9 13 15 10 8 14 21 24 24 25 23 21 20 20 19 18 17 17 20 19 15 18 23 21 20 19 21 17 21 21 21 20 19 17 15 14 13 11 9 8 7 6

GFSWCAN_850_spd_096.txt.gz
Wind_Speed
20 19 18 19 20 16 15 15 13 12 13 11 10 10 10 8 6 4 4 5 4 5 7 9 9 6 6 5 3 2 2 2 3 2 2 2 2 3 3 4 3 4 3 4 1 2 6 8 5 5 4 5 9 9
19 18 18 19 20 18 16 15 14 12 13 12 9 9 10 10 8 6 5 5 5 5 6 8 13 12 10 7 5 6 4 5 5 2 1 1 2 1 3 3 1 3 5 3 7 5 4 16 5 9 8 7 9 9
21 19 17 20 21 18 17 15 13 13 13 13 9 8 9 9 7 8 7 6 6 5 8 9 10 13 11 9 8 3 4 5 6 6 6 3 4 3 3 5 3 4 5 3 2 3 7 15 16 12 12 10 9 9
23 21 20 20 22 19 18 15 13 12 12 14 10 8 8 9 8 7 8 7 5 3 2 4 7 9 12 12 10 11 7 5 4 5 5 3 3 9 4 4 5 6 5 4 6 8 13 17 18 14 14 11 10 8
25 23 22 21 22 21 19 17 14 13 11 12 11 9 9 8 7 7 9 8 6 4 3 5 8 11 12 12 11 11 10 9 6 3 1 3 4 1 3 1 5 13 9 5 7 13 11 10 11 16 15 11 9 9
25 24 23 22 24 22 20 19 15 14 12 12 11 9 9 8 7 5 4 8 6 5 4 2 3 4 5 6 8 9 8 7 6 4 5 6 6 4 3 4 10 18 25 31 16 20 19 11 9 11 13 11 10 9
28 25 24 22 24 23 21 20 15 15 13 12 12 10 9 9 8 5 3 2 3 2 3 5 3 2 2 4 4 5 8 6 7 5 6 5 5 6 2 15 5 19 25 23 19 19 10 15 10 15 13 12 10 8
30 27 22 21 23 23 23 21 16 14 14 13 12 10 9 9 10 11 12 8 3 3 3 1 4 2 2 3 3 3 4 5 7 5 4 3 2 4 5 9 17 17 18 24 32 25 18 12 15 15 14 14 13 10
34 30 25 22 24 25 25 21 16 13 12 13 12 10 8 7 5 5 7 9 10 7 3 4 3 3 3 2 3 3 3 1 3 2 3 1 3 6 8 13 19 14 10 12 11 18 14 13 16 16 15 14 12 10
35 35 29 25 26 28 26 21 17 13 10 8 7 5 6 6 6 4 3 3 5 6 7 6 6 2 5 3 2 1 2 1 1 2 2 3 4 21 24 19 22 24 23 15 15 14 16 17 18 17 15 12 9 6
36 40 37 29 27 30 29 24 22 17 14 10 7 5 5 5 5 4 3 4 4 3 7 5 12 3 5 2 2 2 2 0 1 3 2 3 4 5 10 21 17 15 13 20 15 8 12 11 17 17 14 10 6 5
38 40 42 35 30 34 33 29 27 21 11 9 4 5 5 5 4 2 3 2 4 5 8 8 7 6 5 4 2 1 1 1 4 1 2 3 4 13 17 16 11 7 4 16 10 8 11 13 15 14 11 8 7 7
37 40 43 40 36 37 37 34 30 23 17 10 6 3 5 6 1 7 8 4 2 9 13 10 3 8 5 5 3 2 2 4 1 1 4 5 10 17 19 9 3 1 7 9 8 10 12 14 13 11 8 7 7 7
36 38 41 43 41 40 40 37 34 28 18 8 8 5 6 5 6 6 4 5 8 10 23 18 8 4 4 3 3 3 3 2 2 3 6 3 6 14 16 7 5 6 7 8 10 11 10 9 8 6 6 7 7 6
35 37 39 43 44 43 44 39 37 36 13 8 9 7 8 11 7 5 10 10 10 24 27 12 7 3 1 3 2 2 1 4 6 5 3 5 8 14 13 9 9 11 12 12 12 10 9 8 6 6 7 8 7 6
32 34 39 43 45 45 44 40 38 37 8 8 10 5 7 2 5 8 16 10 22 29 15 6 4 3 4 4 3 7 5 7 4 4 7 6 9 9 8 10 12 13 13 13 13 12 11 9 8 8 9 9 8 7
31 43 41 46 46 47 45 45 30 14 13 9 8 21 13 5 8 16 17 17 27 23 3 5 6 9 4 2 4 5 6 4 9 14 4 3 7 9 8 7 12 16 17 16 15 14 12 11 11 10 11 9 7 9
36 39 45 43 48 50 47 22 17 14 11 13 7 16 21 12 8 13 22 23 23 14 11 5 9 3 6 7 5 4 18 16 11 11 8 3 5 7 8 8 11 17 19 18 16 15 14 14 12 11 11 8 9 10
38 44 43 48 60 43 19 15 13 11 15 7 19 14 18 13 21 13 16 27 25 23 7 8 4 5 6 7 7 11 15 13 11 11 12 8 6 6 7 8 10 17 21 21 20 17 15 13 13 12 11 9 9 10
37 44 49 53 60 22 12 9 15 7 9 15 15 23 15 9 19 24 21 24 32 12 7 5 7 9 11 17 19 23 22 16 14 14 14 12 11 11 11 10 13 15 21 23 22 21 19 16 15 14 12 11 10 10
39 47 46 62 38 11 12 11 10 9 11 11 18 19 9 16 18 25 29 28 21 9 5 28 29 32 31 29 22 20 19 19 22 25 27 26 22 19 17 16 16 18 24 27 27 24 22 18 14 15 14 12 10 10
36 56 47 42 8 13 8 15 9 13 13 5 19 19 6 6 9 18 19 19 15 29 33 36 37 37 38 39 41 38 38 39 39 38 35 32 30 29 27 24 23 24 27 29 28 26 22 17 16 15 14 12 12 10
47 43 27 15 6 10 6 23 7 12 5 9 13 5 4 5 11 21 9 14 20 35 44 47 45 42 40 42 40 41 42 41 39 38 36 36 34 31 27 25 24 26 28 29 28 26 23 20 18 16 14 13 12 10
40 28 11 15 9 5 14 10 8 9 7 5 6 4 4 5 17 6 5 8 22 25 35 45 48 49 48 49 48 49 45 41 39 37 34 33 33 32 28 27 26 25 24 24 26 26 25 22 19 17 14 14 13 11
11 9 9 5 8 6 6 6 5 4 5 5 7 3 5 10 4 5 4 3 21 29 34 36 40 39 39 39 37 37 32 31 31 30 27 28 30 30 29 29 27 24 21 24 28 28 26 23 22 17 15 14 13 11
6 9 13 12 5 6 8 7 10 6 5 4 6 7 8 4 5 8 4 12 28 34 35 36 39 38 34 32 30 26 21 20 21 22 23 25 25 27 29 28 28 27 25 26 26 26 24 23 22 18 16 14 13 11
9 7 12 10 13 11 5 4 10 4 6 7 5 5 4 6 8 5 10 20 28 27 20 15 17 19 19 15 14 14 16 16 17 19 20 19 20 20 23 25 23 21 20 21 24 23 23 22 20 18 15 14 13 11
7 14 13 12 6 8 6 5 6 9 6 11 10 8 11 10 7 9 10 12 18 14 13 14 14 14 14 14 14 14 14 14 15 16 17 18 19 20 21 20 20 18 17 19 19 20 21 19 19 17 15 14 12 11
5 15 17 6 4 5 6 6 8 13 17 19 10 5 5 9 12 13 15 15 18 20 16 14 13 14 15 15 13 13 13 15 16 19 22 23 25 25 21 24 25 23 21 19 17 18 18 18 17 15 14 13 12 11
7 21 4 5 7 8 8 17 12 18 23 18 21 8 10 14 18 22 20 18 17 21 22 17 16 16 16 16 16 15 16 18 18 19 21 23 24 20 19 26 26 25 24 19 19 21 24 23 21 19 16 14 13 11
24 10 5 3 5 4 10 16 17 24 22 21 24 21 21 14 19 22 24 19 17 20 25 27 24 20 19 20 21 22 23 21 21 19 21 20 16 15 17 24 28 27 23 21 21 22 22 21 18 17 15 14 13 12
9 5 5 4 1 9 14 7 12 9 11 12 10 15 9 9 8 11 18 21 24 30 34 30 28 27 27 27 26 23 20 19 18 17 20 20 18 17 17 21 27 26 23 20 20 20 19 18 18 16 15 14 13 12
5 5 6 5 3 1 5 6 5 3 3 3 6 8 13 11 8 15 18 25 30 32 31 29 28 26 23 23 21 20 20 19 17 15 13 16 17 18 20 24 27 24 20 20 21 21 21 19 18 16 15 14 13 11

GFSWCAN_850_spd_099.txt.gz
Wind_Speed
21 21 19 19 20 21 17 14 13 11 11 12 11 10 8 6 7 8 7 6 5 5 10 11 10 9 6 5 4 2 2 1 3 1 1 2 2 3 1 4 4 5 4 4 2 3 7 7 4 6 5 2 6 6
20 19 19 21 22 22 20 15 13 12 12 11 11 10 8 8 7 8 9 8 7 8 8 11 12 16 15 10 6 5 2 3 3 3 0 1 3 1 3 4 1 3 6 4 8 6 5 14 9 10 6 7 11 11
21 19 18 18 22 24 22 18 14 12 12 12 12 9 9 8 7 7 10 10 10 9 12 12 13 16 17 15 13 5 5 6 4 4 5 3 5 4 3 5 3 5 6 4 0 5 9 21 23 23 17 14 10 11
24 21 19 20 21 24 24 19 15 13 12 12 12 10 8 9 8 8 9 9 8 6 4 4 7 10 12 17 15 14 11 6 3 3 5 3 3 8 4 4 5 7 7 4 7 9 14 22 21 21 18 16 13 11
27 25 23 20 21 23 23 21 17 15 13 13 12 12 8 8 9 8 10 10 9 6 4 7 12 14 12 13 13 13 12 10 6 5 3 3 4 2 3 2 7 11 11 6 10 16 14 18 21 14 21 20 16 15
31 27 26 24 23 23 23 23 19 16 14 14 12 11 9 9 8 7 4 5 8 7 4 3 4 5 7 9 11 12 11 10 8 6 6 7 7 6 3 4 7 16 22 32 26 27 20 22 17 14 15 18 17 15
34 31 29 27 26 23 24 25 20 18 15 14 13 11 10 11 9 5 3 2 5 5 4 6 3 3 5 7 6 8 11 7 8 4 6 5 4 7 3 12 4 17 23 31 33 31 19 24 15 16 15 15 15 14
34 32 31 30 28 25 24 26 22 19 16 14 14 12 10 11 11 11 13 13 7 6 6 1 4 3 8 6 5 6 5 6 7 5 4 3 2 4 5 9 11 12 17 24 16 19 30 22 19 15 16 16 16 14
36 31 33 32 31 29 26 26 23 20 18 14 13 13 9 8 6 5 7 10 13 10 4 4 3 4 8 6 5 5 4 2 4 3 3 1 2 6 9 14 20 20 14 21 29 20 15 17 19 20 19 18 17 17
34 33 32 35 33 32 31 27 23 22 18 13 11 6 5 5 6 3 3 3 7 8 9 7 5 2 8 6 4 3 3 2 1 3 2 3 4 25 27 27 27 24 21 18 15 15 13 15 18 20 21 18 15 14
32 31 31 35 35 34 34 29 26 27 17 14 9 6 6 6 5 4 4 4 6 4 8 7 19 5 8 3 3 5 2 1 1 3 2 3 3 6 5 8 19 16 15 12 12 17 14 15 19 19 18 16 14 13
34 31 31 35 34 33 36 33 32 34 19 13 8 6 7 6 4 2 3 3 4 5 8 10 7 4 6 5 4 4 2 1 5 1 1 3 4 9 9 15 11 8 7 3 4 8 9 13 15 16 15 14 13 12
34 33 33 35 34 32 36 37 35 35 26 18 7 6 6 6 2 8 8 4 3 6 11 10 3 8 5 4 4 2 3 4 2 1 4 5 8 9 9 10 4 3 0 3 5 6 8 10 14 14 14 13 11 11
34 33 32 37 34 32 36 40 38 39 24 9 10 6 7 5 6 7 5 5 8 6 18 19 9 6 5 3 3 4 2 3 1 3 6 3 10 6 7 5 4 4 5 6 7 8 10 12 13 13 12 11 11 10
35 33 32 37 36 33 38 43 43 46 14 10 10 8 9 12 7 7 16 7 9 18 26 9 5 3 1 2 2 3 1 5 6 5 3 9 6 3 3 3 5 8 9 10 11 12 12 13 12 11 12 12 11 11
31 34 36 37 34 33 41 47 49 47 9 9 9 5 6 4 5 11 15 12 19 33 17 4 3 2 3 3 3 8 7 7 4 4 11 9 6 2 2 3 4 8 12 13 14 15 16 15 14 12 13 13 13 12
29 34 37 36 31 32 46 46 32 17 12 9 10 23 16 4 9 18 19 19 30 27 4 5 7 9 4 2 4 5 6 4 11 13 16 11 6 3 3 3 5 8 13 16 17 19 18 17 16 15 15 14 15 14
30 35 33 35 24 46 33 28 21 14 12 17 7 14 27 11 11 14 22 26 26 16 12 6 10 4 7 7 4 4 18 16 8 16 16 13 10 7 5 4 4 5 9 15 19 19 20 21 20 17 14 15 16 15
36 33 28 27 34 43 23 16 11 10 18 6 21 18 23 18 17 14 22 30 23 21 6 9 4 5 5 6 7 13 14 15 17 19 21 18 17 14 10 8 9 11 12 15 21 24 23 21 19 17 16 16 16 15
34 34 33 31 45 28 10 8 14 8 8 14 14 24 17 13 25 26 25 33 35 11 10 5 6 8 10 17 21 23 20 16 18 17 19 21 21 20 16 15 15 14 15 17 20 24 26 26 25 22 19 16 17 16
30 34 32 47 37 18 14 11 12 10 12 11 17 22 9 12 16 24 22 31 16 10 8 28 32 39 38 32 27 26 25 21 22 24 27 26 19 19 22 22 20 22 22 23 25 28 30 31 26 22 19 18 16 15
27 25 31 42 13 14 9 17 10 13 10 5 20 17 8 6 8 15 18 15 15 36 27 33 40 40 42 51 52 47 41 33 30 28 28 31 32 35 33 29 29 29 28 27 27 29 30 29 26 24 22 19 17 16
26 28 18 13 5 10 8 22 7 13 6 9 15 5 3 5 11 21 9 17 25 34 34 44 46 38 45 51 45 46 43 41 42 43 45 44 40 39 34 31 32 30 29 27 27 29 28 26 26 25 21 19 18 17
30 19 12 14 9 5 11 7 7 8 7 5 5 4 5 6 20 7 6 10 31 28 33 41 40 42 48 52 54 57 56 47 46 48 49 47 44 41 33 34 33 32 29 26 27 26 26 28 27 26 23 21 19 18
7 8 10 5 8 6 5 5 3 3 5 5 6 3 4 11 5 5 5 4 24 32 36 38 41 47 52 50 45 47 43 39 41 44 39 34 31 29 30 31 30 29 27 29 29 26 25 27 29 27 23 21 18 18
7 12 13 11 6 7 8 7 9 6 5 5 6 5 7 4 5 9 4 19 31 32 34 38 45 48 42 43 38 41 40 33 30 31 33 26 25 27 28 28 28 29 30 30 29 26 25 28 29 26 23 21 19 19
7 6 10 9 10 9 5 3 8 4 6 7 6 6 4 5 8 5 8 21 27 28 27 31 36 39 44 40 33 30 29 23 19 20 18 20 21 22 24 26 26 25 23 24 25 26 26 27 26 23 22 20 20 17
8 13 11 13 6 7 5 4 7 9 6 11 10 8 11 10 6 7 6 11 19 26 25 25 25 23 20 18 16 17 19 18 18 17 18 20 19 20 21 21 21 19 18 17 18 20 22 23 22 21 21 20 18 17
7 11 15 5 3 4 6 7 8 12 17 19 10 6 5 8 15 15 10 7 8 15 23 24 22 21 22 20 19 18 17 16 17 19 20 20 18 19 18 20 21 19 19 17 17 18 19 19 18 18 18 17 16 16
6 23 5 7 7 9 8 17 7 19 22 18 17 9 10 13 15 20 25 24 16 20 25 24 22 24 24 23 19 19 16 16 16 17 19 18 15 12 14 16 19 19 19 19 20 21 21 21 22 22 22 21 19 18
18 17 4 4 5 5 10 14 11 20 22 23 24 21 19 13 21 26 27 21 20 27 30 30 31 27 23 21 19 17 17 18 19 19 19 20 19 14 12 13 16 19 22 24 22 21 22 20 20 21 20 19 18 17
11 7 5 4 3 7 13 10 15 13 12 13 9 13 10 10 9 20 24 26 30 36 35 31 31 33 27 22 19 18 19 19 19 18 19 21 20 14 11 14 16 20 25 25 22 21 16 18 19 19 19 18 18 16
6 6 4 5 3 2 5 4 3 1 2 2 5 7 11 9 8 14 18 27 36 40 44 38 31 27 26 26 25 22 20 20 20 19 17 16 15 14 14 15 16 22 25 24 22 16 16 19 19 18 18 18 17 16

GFSWCAN_850_spd_102.txt.gz
Wind_Speed
15 17 18 19 17 18 19 18 15 10 10 12 14 13 9 8 7 7 8 7 6 5 12 12 11 10 6 5 3 2 3 2 1 2 3 3 3 3 2 4 4 5 4 4 3 3 7 6 4 5 5 2 6 10
20 16 15 18 18 18 18 18 16 13 10 11 12 13 11 8 8 8 9 9 9 9 10 18 18 17 18 16 7 6 2 2 4 3 1 1 3 1 3 4 2 3 5 3 7 6 5 10 12 11 10 9 8 11
27 23 18 17 19 21 21 18 17 15 12 11 12 12 12 10 8 8 8 10 10 10 16 14 12 16 21 19 17 6 4 5 4 5 5 1 5 4 3 5 2 5 7 4 1 5 8 15 20 27 28 24 18 14
30 28 24 20 20 23 22 20 18 15 13 13 13 13 12 11 10 9 9 7 7 5 4 5 7 10 10 15 18 18 15 7 5 5 4 2 2 7 3 4 5 7 6 4 6 13 21 26 22 26 23 23 22 19
32 30 28 25 23 23 24 22 19 16 13 14 15 14 13 12 11 12 13 11 10 7 4 10 20 21 16 12 13 15 14 12 7 3 2 3 4 2 3 2 5 14 8 5 7 16 14 19 20 17 21 22 21 18
31 30 30 29 27 25 26 26 22 17 14 14 15 15 14 12 10 9 6 5 9 9 4 3 5 7 7 10 11 11 11 10 7 4 5 5 5 4 3 4 10 14 23 27 17 25 26 28 29 19 24 19 15 16
33 30 29 29 28 28 28 28 25 20 14 15 15 15 15 14 12 9 5 1 3 4 4 6 4 2 6 6 5 8 10 7 7 4 5 4 3 6 3 11 22 15 19 24 26 22 21 22 18 15 14 13 14 15
32 33 32 30 28 28 30 30 27 21 16 15 16 15 13 14 16 18 19 17 10 6 5 1 4 2 9 6 5 5 4 5 5 4 3 3 2 4 5 19 19 16 13 20 24 14 19 24 20 17 17 16 18 18
32 31 30 31 28 27 29 28 26 21 17 17 16 12 12 13 9 9 11 12 15 11 4 5 3 4 9 5 5 6 5 2 3 3 4 3 3 6 10 17 23 21 15 23 29 28 24 20 15 13 15 17 18 18
31 32 29 30 29 28 30 26 24 22 18 21 13 6 6 6 8 4 4 5 9 10 9 7 7 2 9 6 2 4 3 2 2 4 3 4 5 29 32 29 27 27 23 24 25 24 17 17 14 13 15 16 15 13
30 30 32 29 28 29 30 26 22 22 21 18 12 8 7 7 6 4 4 5 7 5 10 8 19 5 10 3 3 5 2 0 2 3 2 3 4 6 9 9 11 17 17 16 19 17 14 13 12 14 15 15 15 15
31 30 30 30 29 27 29 26 25 31 28 18 8 8 8 7 6 3 3 3 5 5 9 11 11 7 7 6 4 4 3 2 5 1 0 4 5 12 8 9 13 11 10 8 4 4 8 12 11 12 14 14 14 13
30 29 30 30 30 28 29 27 28 33 33 22 8 9 8 6 3 8 9 4 4 7 13 12 5 10 6 5 5 3 4 5 3 1 4 6 7 9 8 9 9 8 8 7 7 8 9 9 11 13 14 14 13 13
30 29 28 27 28 29 28 29 35 40 30 12 11 6 7 6 7 7 6 6 10 7 21 20 7 8 6 3 3 4 3 3 1 4 7 3 17 14 10 8 8 7 8 9 10 9 10 10 10 12 13 12 12 12
32 30 29 30 29 30 29 30 44 51 26 10 10 7 11 13 8 7 15 9 11 22 31 9 4 3 2 3 3 3 3 5 6 5 4 10 14 12 10 7 6 7 9 11 11 11 11 12 12 13 14 13 13 13
30 31 37 33 32 30 32 23 54 46 17 12 11 6 6 3 5 10 16 12 17 31 24 5 3 3 4 4 5 9 8 8 4 4 16 14 17 14 10 8 8 9 11 11 13 14 15 15 15 15 15 15 14 14
26 36 32 30 30 31 31 34 34 20 14 8 9 22 18 6 9 15 18 18 24 28 4 5 7 9 3 2 4 5 6 4 11 15 13 21 19 15 11 10 10 9 9 11 13 17 19 19 20 21 21 18 16 16
36 33 28 28 32 29 31 37 19 12 10 11 7 17 26 13 10 10 20 26 27 15 9 5 9 5 7 7 4 4 18 16 14 12 15 22 21 18 15 13 12 10 8 10 14 15 20 25 26 25 21 19 20 19
34 32 31 28 27 34 20 17 13 10 16 10 20 13 25 22 28 19 19 30 31 21 6 7 5 5 5 6 7 15 18 14 12 17 21 23 23 22 20 18 18 16 13 14 16 18 21 24 25 24 21 22 23 19
31 31 34 33 32 25 9 10 15 8 7 12 13 22 20 13 24 29 25 31 33 9 8 5 7 8 8 19 25 22 17 14 14 17 21 23 27 28 26 28 26 22 17 18 18 20 23 25 27 28 27 26 24 21
28 31 36 31 33 24 13 13 10 9 11 12 15 20 9 15 17 22 23 34 17 10 7 34 34 39 37 33 29 22 22 22 26 27 30 27 23 24 27 29 30 28 27 26 26 26 28 29 29 28 28 27 24 20
31 27 27 29 22 13 10 12 6 13 11 4 18 17 6 5 10 21 22 17 12 33 39 39 36 35 43 46 46 44 46 43 37 36 37 37 37 39 37 34 32 35 33 31 32 32 30 30 29 26 26 27 24 22
29 28 24 15 9 14 7 18 7 11 5 10 14 6 3 4 9 22 9 14 29 43 38 43 39 33 41 48 47 52 53 55 54 53 52 49 49 47 44 42 41 38 38 36 34 33 31 29 28 25 24 25 25 22
28 12 10 12 11 5 8 7 7 8 7 5 6 4 3 5 17 5 5 13 38 31 38 37 34 39 44 48 54 56 57 52 55 52 54 49 48 51 47 47 49 46 41 40 35 31 30 29 27 27 25 27 25 23
10 9 7 4 7 6 6 4 4 4 5 5 6 3 3 11 4 4 5 5 24 33 35 34 42 51 47 53 52 47 41 40 47 49 45 43 44 40 41 40 38 35 32 29 32 32 30 27 26 26 27 27 26 23
8 14 12 9 5 7 7 8 7 5 4 4 6 4 7 4 5 8 4 14 32 33 33 40 49 43 48 49 42 39 42 37 34 34 39 35 34 33 31 31 29 29 27 27 29 30 29 28 27 26 27 26 24 21
8 8 11 12 9 5 4 2 6 4 6 8 5 6 4 6 8 5 14 22 29 33 32 35 40 43 48 47 43 42 39 35 33 32 29 27 24 21 22 24 24 23 20 19 21 23 26 27 26 25 25 26 24 21
6 13 10 12 7 8 5 4 6 9 6 8 10 8 11 10 7 9 10 11 9 17 24 26 31 37 37 36 35 33 28 25 25 23 19 17 17 16 16 18 19 19 19 18 16 16 19 21 22 22 24 24 21 20
6 8 13 4 3 4 7 9 7 11 12 18 9 6 5 10 20 22 16 11 9 12 14 21 25 28 26 26 26 23 21 20 22 22 22 19 15 15 13 14 16 15 14 14 13 14 15 16 18 19 18 18 17 17
8 19 5 6 6 7 8 18 7 14 18 20 18 13 18 29 30 23 23 26 27 28 23 19 18 18 22 25 24 22 21 20 19 19 17 15 14 13 13 12 11 11 13 15 16 16 19 21 22 22 21 20 21 21
17 21 5 4 5 7 14 15 15 10 14 14 23 21 24 20 27 30 34 35 33 31 30 27 25 22 23 25 24 23 23 22 20 19 18 17 16 15 13 8 8 11 15 16 16 19 23 24 22 21 21 21 20 19
12 10 6 4 4 3 7 8 6 8 9 8 8 15 15 9 11 26 32 32 36 39 38 36 35 34 32 28 27 24 19 15 15 15 17 19 19 17 14 11 11 13 15 17 19 20 21 20 19 19 17 18 18 17
6 7 5 6 2 1 7 7 3 3 5 6 10 14 19 13 9 21 27 28 32 36 40 43 42 35 29 26 28 27 27 21 17 16 17 17 16 15 13 13 12 14 16 19 21 22 21 20 17 17 17 17 17 16

GFSWCAN_850_spd_105.txt.gz
Wind_Speed
16 17 17 18 18 17 18 20 21 16 10 12 14 14 13 10 8 8 7 8 6 5 10 12 11 9 7 6 4 1 3 1 2 1 2 2 2 3 2 4 5 7 5 4 2 3 7 7 5 5 4 3 5 8
20 19 19 18 20 20 19 19 22 20 17 10 12 14 13 12 9 8 8 7 9 10 9 11 16 19 18 16 8 7 3 3 6 3 2 1 3 1 3 4 1 4 6 3 8 6 5 13 11 9 8 12 15 12
26 24 24 22 20 20 21 20 20 21 20 13 10 14 14 13 12 8 9 9 10 10 14 15 12 11 18 23 19 8 6 7 5 5 4 1 5 3 3 5 2 4 4 4 2 5 12 25 20 20 22 24 25 26
29 29 28 25 21 20 22 22 21 20 21 18 12 13 14 13 13 12 10 10 8 6 5 5 6 7 7 10 19 21 18 8 4 4 4 3 3 8 4 4 5 7 6 4 7 13 25 24 15 19 26 18 16 18
26 28 30 28 24 20 23 24 23 22 21 18 14 13 15 13 14 13 14 14 11 8 5 10 15 17 16 11 12 17 17 15 8 4 3 4 5 2 4 1 6 14 7 5 7 11 15 17 23 24 25 29 26 22
28 28 30 29 27 23 22 23 24 22 21 19 14 11 15 15 13 12 5 2 5 9 6 4 5 6 5 9 12 12 12 11 7 6 6 6 5 4 3 4 9 17 21 28 17 19 23 29 32 26 23 27 27 27
28 29 30 29 28 25 24 24 22 23 21 18 15 12 16 15 14 9 6 1 3 5 3 8 5 3 7 8 9 10 12 8 8 5 6 4 4 6 3 7 16 20 22 21 22 22 28 23 19 21 22 20 18 16
28 28 27 26 25 26 26 26 23 21 20 18 15 13 16 16 17 19 18 20 11 5 6 2 4 4 10 5 6 8 7 9 8 5 4 5 5 7 6 20 29 24 15 17 16 19 24 23 29 31 23 18 18 17
27 27 26 26 26 24 24 25 24 20 18 17 14 16 14 13 9 8 9 12 17 13 5 7 4 4 9 4 3 6 6 3 4 3 4 4 3 7 12 19 24 19 12 11 13 22 26 27 25 19 14 13 15 16
25 26 26 26 25 25 23 21 21 19 16 19 17 9 5 6 8 4 3 4 8 9 10 6 8 3 11 7 3 3 3 2 2 5 6 4 6 32 31 27 26 22 20 21 25 25 15 14 10 8 10 10 12 14
26 26 26 25 23 23 25 18 18 16 26 23 9 9 8 6 6 4 4 5 6 5 10 10 21 5 12 4 4 7 2 2 1 3 3 3 4 7 16 14 20 20 18 16 18 17 16 13 10 10 9 9 11 13
26 26 25 25 24 22 22 18 16 21 26 21 9 11 10 8 7 4 4 3 5 5 7 8 9 7 8 7 5 6 3 1 6 4 2 4 5 16 11 14 12 11 13 12 12 9 7 8 10 11 10 11 11 12
26 26 25 25 22 21 22 19 19 23 29 22 11 9 8 7 5 7 9 4 4 8 13 10 2 10 6 6 4 3 5 6 5 2 4 6 7 9 18 15 12 11 12 11 10 10 9 9 8 9 11 12 13 14
28 27 27 25 24 22 19 19 20 27 25 11 11 7 7 5 7 6 6 4 7 7 22 22 8 4 5 4 2 4 4 4 2 4 7 4 17 18 17 13 12 10 11 11 10 12 11 10 10 11 12 13 13 13
30 29 27 27 25 23 20 21 21 27 25 11 8 6 10 15 8 5 15 6 4 13 28 11 5 6 2 2 3 3 3 5 6 6 3 9 10 17 20 16 13 10 10 10 11 12 12 12 12 12 13 13 14 14
29 29 32 30 27 26 24 21 23 32 16 10 9 5 9 4 5 13 14 16 13 26 19 3 2 3 6 4 4 9 8 8 4 4 15 10 10 18 18 15 12 11 11 11 12 12 13 14 14 13 15 15 16 16
26 34 33 29 27 25 26 26 27 23 11 9 10 26 19 7 13 24 26 19 24 27 4 4 5 12 3 2 4 5 6 4 9 7 11 10 17 18 16 16 15 13 12 11 10 11 13 14 17 20 22 20 19 17
34 33 31 28 25 24 25 31 19 14 10 17 10 31 22 24 24 18 18 25 27 19 10 6 6 4 6 7 4 4 19 21 14 13 9 14 18 22 20 21 18 17 15 15 12 12 15 18 22 24 22 21 22 22
32 32 31 28 24 24 12 16 24 8 18 18 35 29 18 16 31 31 28 29 29 24 13 7 5 4 9 7 7 13 16 17 18 14 14 15 18 21 24 21 21 22 22 22 20 18 18 20 21 22 22 22 26 24
31 32 32 30 25 25 9 9 11 11 10 17 20 25 23 21 25 31 32 31 37 13 5 5 7 22 11 20 22 30 32 24 25 21 24 23 22 22 19 21 27 33 29 26 26 25 24 25 24 24 26 25 26 28
30 34 33 30 31 32 13 7 7 9 9 13 18 18 9 16 18 25 27 34 18 9 5 29 44 45 42 47 42 34 27 21 27 32 37 31 26 27 32 33 29 36 35 33 34 35 33 31 26 26 28 26 25 26
35 30 30 29 20 15 15 17 9 4 8 6 16 20 8 6 9 18 19 16 10 25 35 45 46 40 38 47 51 50 50 43 45 46 45 43 42 43 41 37 33 36 41 41 42 41 40 35 29 28 29 25 23 24
28 30 29 21 16 16 9 21 13 12 5 5 12 5 3 4 9 18 8 12 25 41 49 47 44 39 41 44 44 45 50 52 56 56 57 53 53 53 50 45 43 44 43 44 44 40 39 36 33 31 29 25 24 24
29 19 12 9 15 5 8 9 9 10 9 5 4 4 3 5 16 5 5 10 34 34 38 48 42 41 46 54 50 55 58 44 48 56 49 42 40 45 47 46 45 43 40 37 39 38 36 38 33 32 29 26 25 25
12 10 10 7 10 7 7 4 4 3 4 5 5 4 4 9 4 4 4 7 31 39 44 40 42 47 50 46 46 44 37 34 39 48 50 47 46 45 42 40 41 39 32 30 32 35 36 33 31 29 27 26 25 26
9 16 12 10 8 7 7 7 7 7 4 4 6 3 5 4 6 7 5 26 34 40 40 40 44 41 39 50 47 42 39 32 32 36 41 41 39 35 35 35 35 31 24 23 27 28 26 25 25 25 24 24 23 23
7 8 9 10 7 8 4 1 5 3 6 7 4 6 5 5 7 6 18 28 36 42 36 35 37 40 45 43 40 38 36 33 31 33 32 31 29 25 24 27 29 24 16 15 16 17 19 21 23 23 23 22 22 22
7 7 11 11 6 5 5 5 7 8 6 9 10 6 11 10 8 10 11 13 11 13 18 23 27 30 34 38 35 31 30 28 25 24 26 27 26 24 20 18 16 14 13 13 14 14 15 17 18 19 20 20 20 20
4 8 12 4 4 4 6 8 7 12 11 18 8 6 6 16 28 24 22 21 19 17 20 20 20 20 23 24 25 27 27 26 22 24 27 27 20 15 12 12 13 11 11 12 11 11 11 12 13 15 16 15 16 19
10 22 7 6 6 8 8 18 8 14 17 19 14 14 21 32 32 30 31 32 31 32 33 33 32 27 22 20 22 23 21 20 20 21 22 19 11 9 9 9 8 9 11 11 10 12 14 17 18 18 18 20 22 22
10 22 3 6 6 14 21 20 20 13 11 13 22 23 26 25 30 33 37 39 38 39 39 39 37 35 32 28 24 23 18 17 21 19 18 17 11 7 7 7 7 8 9 10 12 13 14 16 17 19 21 23 23 21
14 11 6 5 4 6 9 10 8 11 9 11 12 16 17 12 14 36 36 34 36 39 43 42 44 45 43 39 30 24 24 26 23 20 19 16 14 13 13 10 8 9 11 12 13 13 13 15 18 20 21 21 19 18
7 7 4 3 0 2 9 10 7 3 5 4 10 24 31 22 17 31 27 28 37 40 39 39 39 38 39 37 33 28 20 24 20 18 19 17 14 16 14 12 11 13 14 14 15 15 17 18 20 20 20 19 19 18

GFSWCAN_850_spd_108.txt.gz
Wind_Speed
17 18 18 17 19 19 18 19 19 18 18 17 15 16 14 12 10 9 8 7 5 5 13 13 12 9 5 5 3 4 2 3 2 5 3 3 4 3 3 2 5 8 7 6 5 7 9 10 6 6 4 6 3 5
21 21 23 22 21 22 20 18 19 19 18 18 16 15 14 13 12 9 7 9 9 9 10 17 17 14 17 13 7 7 3 3 6 3 3 1 4 3 4 5 3 5 7 3 8 6 1 13 11 8 8 6 11 15
29 27 25 27 24 23 22 19 18 19 19 18 18 15 15 14 13 11 9 10 11 9 14 10 7 13 23 26 22 9 7 9 5 6 2 1 7 3 4 7 5 7 9 5 2 9 19 22 18 19 21 19 18 18
28 31 27 26 28 27 22 22 19 18 18 19 19 16 13 14 15 13 12 10 8 7 5 5 5 8 9 12 18 25 19 8 7 6 4 4 4 7 4 6 7 9 9 10 13 20 25 27 21 13 11 14 19 21
23 25 26 24 24 24 21 20 21 18 17 18 18 18 13 14 14 15 15 14 12 7 5 10 19 19 18 14 12 17 21 18 9 4 4 4 4 3 5 4 13 18 12 9 8 14 15 15 13 16 18 23 19 20
27 25 25 25 22 24 22 20 19 18 18 16 18 16 13 14 14 12 6 2 1 10 3 4 8 8 8 9 14 15 15 13 10 5 5 5 6 4 4 5 12 15 27 33 20 17 21 22 22 24 25 17 16 19
25 24 23 23 24 24 22 20 20 18 16 16 16 16 14 16 15 9 5 4 1 4 3 7 6 4 6 8 8 10 14 11 10 5 6 4 4 6 4 10 12 16 25 26 28 24 23 26 18 13 18 20 25 20
20 21 22 23 22 22 20 20 18 18 15 15 15 16 15 17 19 19 18 20 11 5 6 2 4 3 10 5 4 8 5 8 8 6 3 5 4 6 7 23 22 22 19 21 26 26 30 26 23 24 25 23 18 15
20 20 21 21 20 20 20 19 18 17 14 12 15 16 15 14 10 10 9 10 17 14 5 5 3 3 11 6 4 6 6 4 4 5 5 8 5 8 15 19 22 21 13 8 5 12 17 20 26 25 20 15 13 12
22 21 21 20 20 19 17 18 16 13 11 15 18 11 6 8 11 7 4 3 10 11 9 7 8 4 12 7 5 5 3 3 3 4 4 5 7 33 35 31 30 19 17 16 14 16 17 14 14 12 9 10 10 10
24 22 20 20 21 19 17 15 12 12 11 12 9 9 9 8 7 5 4 5 7 5 9 9 18 5 11 4 4 8 3 3 3 1 3 4 5 7 15 23 30 39 32 24 26 23 18 16 13 12 9 9 9 11
25 24 22 21 20 19 17 15 12 14 13 11 8 11 11 8 7 5 5 5 6 6 6 5 8 13 8 7 4 6 3 2 6 5 2 5 6 21 14 9 9 15 17 16 16 13 12 10 7 9 10 9 10 10
24 23 23 21 20 18 17 14 15 16 18 20 10 8 7 6 6 8 10 4 4 6 9 7 4 9 6 8 3 3 6 6 4 3 4 7 9 9 10 14 14 14 13 11 11 10 10 9 10 10 9 10 12 12
24 23 24 23 21 19 18 16 12 19 15 7 9 7 6 6 8 6 6 5 6 5 14 13 5 3 4 4 3 4 3 4 3 4 8 4 16 14 15 17 15 12 10 9 9 9 10 11 11 11 11 12 12 13
24 24 25 25 23 21 19 17 16 20 18 11 6 6 11 16 5 3 14 6 6 11 21 8 3 2 2 3 3 2 3 6 6 6 4 8 10 9 18 21 17 14 11 9 9 10 10 11 11 12 12 12 13 14
23 24 28 24 24 22 19 18 21 22 13 10 9 7 7 3 5 10 13 17 13 19 15 6 3 2 6 4 4 10 5 7 5 4 17 11 10 10 17 20 16 14 13 11 11 11 11 11 10 10 13 15 15 16
23 29 27 23 21 21 19 20 18 13 10 10 13 36 32 19 14 22 25 24 20 24 4 4 9 10 2 2 5 6 7 4 9 16 11 10 12 12 15 20 21 20 18 15 14 14 13 12 14 14 16 16 17 18
29 26 23 22 19 18 23 25 15 11 10 18 7 34 31 34 34 30 28 25 26 18 13 7 3 5 8 6 6 5 20 26 27 24 16 14 16 16 18 22 24 23 21 18 16 17 18 19 20 17 16 16 18 21
31 27 25 23 20 20 8 10 22 8 22 25 35 33 31 32 34 33 33 33 32 21 10 9 5 5 6 7 10 23 23 23 26 25 23 23 23 22 19 22 28 28 27 24 21 22 24 24 22 19 21 22 22 22
29 28 27 24 20 14 9 10 12 11 15 22 30 28 25 29 32 30 28 33 35 16 7 5 7 15 18 34 38 37 36 36 35 30 30 33 33 31 27 25 28 29 29 27 25 24 28 31 32 24 26 30 26 25
27 30 28 26 28 24 12 10 12 10 8 11 21 30 21 20 24 25 22 30 17 9 6 30 38 44 54 59 41 43 47 41 39 37 35 37 38 40 38 32 33 36 35 32 31 39 40 41 37 29 30 37 29 26
30 28 26 26 19 11 16 21 10 12 11 7 4 10 6 7 13 14 18 16 11 28 38 44 47 49 53 53 60 54 56 48 53 51 49 47 44 43 47 49 46 43 44 46 44 42 41 39 38 34 35 39 35 28
27 26 21 15 12 15 11 28 18 16 7 4 7 4 4 5 8 16 8 12 24 44 45 48 57 62 56 57 48 45 42 45 46 47 47 48 45 46 45 42 44 43 44 46 47 45 45 45 46 46 39 36 36 30
27 16 11 10 16 7 11 12 11 11 12 7 5 7 4 8 16 6 5 8 36 37 41 52 46 43 44 44 46 51 55 44 41 46 49 43 43 42 40 44 44 44 46 43 38 40 39 36 33 31 30 33 35 32
12 10 10 9 13 8 7 5 6 4 4 5 9 5 4 10 5 5 4 9 39 38 34 40 37 38 40 45 45 44 47 34 38 43 45 36 41 43 39 38 40 43 40 38 37 34 34 33 27 28 30 30 32 30
10 17 11 8 8 7 8 6 7 8 4 6 7 4 9 4 5 7 6 30 29 35 38 38 38 36 38 45 47 45 43 33 32 38 40 38 40 41 39 35 36 37 31 29 30 33 32 29 29 29 30 29 28 28
8 7 9 14 10 7 5 3 6 3 7 7 4 7 5 5 7 6 13 21 26 28 27 28 28 30 32 35 35 37 33 27 26 31 31 34 36 32 31 33 34 32 25 21 20 20 21 21 23 25 24 23 24 24
7 9 16 17 9 13 5 5 7 9 5 7 10 8 7 9 8 11 7 9 11 13 15 18 20 21 21 19 20 25 26 24 24 26 29 30 33 31 32 31 28 24 22 16 14 14 15 15 16 18 19 20 21 20
12 20 10 5 3 5 6 9 8 13 12 16 7 6 6 18 31 29 29 26 29 30 29 32 31 30 32 32 27 25 23 20 20 21 24 30 29 28 24 24 22 18 14 13 12 12 13 13 13 14 15 16 16 16
8 14 7 5 6 7 9 17 11 20 19 20 17 15 23 34 35 32 33 32 33 38 40 39 38 38 37 35 37 33 28 22 17 16 20 22 21 14 10 11 13 12 12 12 11 13 15 16 17 18 18 19 20 20
19 20 5 7 7 24 25 21 22 18 18 20 26 28 32 29 36 42 41 40 38 38 40 42 41 43 42 41 39 38 37 30 25 19 16 20 17 10 9 9 8 9 11 12 13 13 14 15 14 15 17 19 22 24
13 13 8 6 8 14 11 11 11 13 15 15 20 25 23 14 13 36 42 34 36 39 41 39 45 47 46 41 38 36 35 34 27 18 16 22 19 17 11 5 7 11 12 13 14 14 13 13 14 16 19 21 23 23
9 7 4 3 2 4 12 10 6 4 6 6 14 28 28 24 15 39 46 41 39 39 44 48 49 47 40 33 32 30 26 22 26 19 14 18 17 18 11 14 17 14 15 16 15 15 15 14 16 19 21 22 22 21

GFSWCAN_850_spd_111.txt.gz
Wind_Speed
17 17 17 17 18 19 21 20 19 17 15 16 18 21 18 15 13 11 9 7 5 5 11 13 13 8 6 6 5 3 2 4 4 4 3 4 4 3 3 7 4 10 7 6 7 8 11 14 10 7 3 3 1 5
22 21 21 21 20 21 21 23 21 18 14 14 15 17 20 18 14 13 10 11 11 10 10 17 16 17 20 14 8 9 3 1 5 4 3 3 4 3 6 5 8 6 10 4 10 7 3 19 14 15 6 5 7 12
23 22 22 24 25 25 25 21 23 20 18 14 15 15 16 18 16 15 12 13 14 8 15 11 8 11 22 26 22 9 10 9 6 7 3 3 6 5 6 10 14 10 17 6 6 10 18 25 23 22 17 14 14 11
24 23 23 23 25 23 24 25 22 21 19 16 15 15 15 15 16 15 16 14 10 8 6 7 8 9 10 14 24 28 20 10 9 6 7 5 6 8 6 10 13 13 3 11 17 22 27 31 30 28 25 17 13 13
25 24 23 22 23 21 21 25 21 19 19 18 17 16 16 15 14 15 18 15 11 6 5 11 19 20 19 19 16 18 22 14 10 6 5 4 7 5 11 9 15 22 16 12 9 12 17 17 6 7 9 11 12 14
22 22 23 24 25 23 21 22 23 22 17 17 16 17 16 16 14 13 6 1 2 9 5 5 7 9 9 8 13 13 13 12 11 6 5 7 7 4 4 5 10 15 24 32 26 23 14 16 15 12 18 17 14 15
20 20 21 22 21 22 21 21 19 20 18 16 15 16 16 16 14 10 6 6 6 2 3 7 5 4 4 6 6 8 11 6 9 5 7 8 5 6 4 10 13 11 19 23 27 23 23 22 15 11 13 14 15 20
19 19 18 19 18 19 18 18 16 16 16 17 14 15 16 16 18 20 20 21 16 7 6 3 4 4 8 4 5 7 5 6 7 6 3 5 3 6 7 27 23 27 21 23 21 22 27 20 21 22 22 22 22 22
16 16 17 16 17 18 17 16 16 15 15 14 14 16 17 15 10 15 13 12 17 14 5 5 3 3 8 4 3 5 5 4 4 5 5 7 5 9 17 22 23 18 13 11 13 22 22 21 19 18 19 19 16 13
20 21 19 17 16 16 15 15 15 14 10 11 12 10 6 6 15 14 7 4 10 11 9 6 6 4 7 5 4 4 5 3 3 5 4 4 8 39 39 32 25 22 16 18 15 14 14 16 16 13 14 11 10 11
21 20 19 19 16 15 15 13 11 9 7 7 5 6 7 7 6 5 4 6 7 5 8 9 13 10 8 5 4 7 2 3 3 4 4 4 5 7 15 19 24 33 34 26 24 20 15 17 16 16 14 11 10 10
20 21 19 20 16 15 14 11 10 10 6 5 6 6 6 6 7 5 4 4 4 5 5 4 5 9 4 7 6 5 3 1 5 5 3 4 7 17 18 18 17 11 20 29 30 25 22 17 14 12 12 13 11 11
20 19 19 19 17 16 14 12 10 13 10 12 8 5 6 7 7 7 9 4 4 6 7 6 3 7 4 7 4 4 5 6 1 3 5 7 9 17 17 10 8 5 11 13 16 17 16 13 13 12 11 12 12 13
22 21 20 19 17 17 16 13 12 13 11 7 7 5 7 7 6 6 6 4 4 4 9 7 4 3 3 4 3 3 2 2 3 5 8 4 11 18 17 13 13 10 10 10 10 11 12 12 12 12 12 12 13 14
24 23 21 21 18 18 18 15 15 17 13 8 7 7 11 15 6 6 12 6 7 11 16 7 2 4 3 3 3 2 3 5 6 6 3 9 16 21 16 11 15 15 13 13 12 12 11 12 12 12 13 13 13 14
24 22 26 23 19 17 19 18 18 20 10 10 10 8 9 4 8 8 12 11 11 10 8 3 3 3 6 4 6 9 4 7 5 4 12 18 19 16 14 10 14 16 19 18 16 15 14 14 12 11 12 13 14 14
23 29 27 21 17 16 16 21 16 13 9 8 13 31 30 19 16 12 9 9 15 18 4 4 5 11 3 3 4 5 7 6 16 21 25 24 20 22 18 14 17 23 26 24 22 20 18 16 17 17 16 13 12 13
33 31 28 23 18 15 18 22 14 11 12 21 11 26 21 28 35 35 26 17 18 15 10 6 3 6 6 6 5 6 19 33 36 39 40 36 21 19 27 29 30 30 30 29 27 24 23 24 23 22 17 16 15 13
34 32 29 25 20 19 9 12 22 7 16 24 36 33 28 26 26 28 24 25 28 23 10 6 7 6 12 19 21 39 41 38 33 36 33 37 42 39 41 40 39 34 30 27 29 33 32 29 27 25 21 19 18 19
32 31 30 26 24 17 10 10 13 12 18 32 26 25 27 33 32 33 31 26 28 15 10 6 12 28 31 38 39 41 44 43 37 32 35 36 35 35 40 40 36 33 35 34 33 33 32 32 31 28 23 27 31 32
29 31 29 28 30 31 13 9 11 9 14 21 26 24 29 25 27 33 30 26 24 12 8 33 44 52 56 56 54 48 46 46 45 41 42 40 42 39 41 45 42 40 43 46 44 38 35 36 38 37 30 34 37 35
31 26 28 30 18 11 13 16 9 10 12 11 6 11 17 20 25 26 19 19 13 30 36 44 48 50 50 46 51 53 51 51 51 48 45 44 43 46 43 40 38 42 43 46 48 47 46 41 37 40 46 46 41 40
25 21 25 20 13 11 7 20 14 11 6 6 9 6 8 12 18 15 7 11 21 37 45 44 53 53 46 55 53 52 50 45 42 40 42 43 42 43 43 40 36 38 41 43 44 46 43 39 38 40 42 40 39 38
25 18 12 9 20 7 9 10 9 9 11 12 9 18 17 17 18 8 8 24 37 45 42 44 40 43 42 42 46 50 54 35 40 44 45 40 37 40 37 38 34 33 38 41 39 37 37 35 33 33 33 34 34 32
11 12 10 7 12 7 6 6 6 8 12 13 19 12 5 5 6 8 13 22 46 42 39 38 37 39 39 42 45 45 43 31 35 39 34 30 35 38 33 32 34 34 34 32 33 36 37 34 36 32 31 29 29 26
9 15 7 11 6 6 7 9 9 14 10 8 8 7 13 5 6 7 11 34 33 38 39 33 33 34 33 40 42 38 35 28 28 31 33 30 31 32 34 34 34 33 28 23 23 27 30 32 31 27 27 26 23 21
7 8 9 18 17 10 7 11 15 6 7 8 5 7 5 5 7 10 38 30 38 42 37 37 33 32 33 29 27 27 24 22 24 26 25 26 25 27 29 32 33 32 28 24 21 22 23 24 22 21 22 23 23 24
9 14 15 21 11 19 15 9 6 7 6 8 5 7 8 9 8 17 18 18 17 16 16 16 16 24 30 29 30 29 26 25 25 25 25 27 26 26 29 30 32 33 30 25 21 19 20 21 22 20 19 19 19 21
12 19 19 9 16 7 7 7 8 15 20 15 9 11 11 32 40 35 35 40 47 43 39 39 41 36 38 38 39 36 36 34 31 31 28 30 28 24 20 20 22 21 20 19 17 17 16 15 15 16 14 14 15 14
13 22 15 10 7 9 14 19 22 30 32 36 32 30 33 39 44 43 39 36 38 44 46 46 47 44 44 41 42 42 41 39 34 34 33 28 29 19 17 19 15 12 12 14 14 13 14 15 16 16 14 14 15 16
14 18 9 14 14 30 34 29 34 34 28 28 31 29 37 39 39 40 42 45 47 49 51 54 52 51 49 47 45 46 45 39 35 29 29 30 25 21 13 17 13 11 11 11 11 11 11 9 12 12 13 14 16 17
15 14 9 11 14 28 25 17 13 17 21 19 25 27 24 18 28 48 46 40 42 48 53 50 51 52 46 42 42 45 39 34 31 26 23 22 23 18 12 16 12 8 7 7 8 10 8 12 12 12 13 15 16 17
8 9 10 10 3 6 9 8 6 6 9 8 14 24 27 27 21 56 38 36 39 43 48 50 49 49 49 47 45 41 37 31 27 25 21 18 17 17 17 20 18 12 9 13 11 10 13 12 12 13 14 15 17 21

GFSWCAN_850_spd_114.txt.gz
Wind_Speed
16 16 16 15 15 16 18 19 18 15 13 15 14 17 20 21 18 14 10 8 6 5 13 13 14 10 5 5 2 1 1 3 2 2 2 4 3 4 1 4 6 8 7 5 5 5 10 14 7 6 5 7 10 12
20 19 19 19 18 19 21 22 20 21 17 13 12 13 15 19 20 16 13 12 11 9 12 18 19 17 19 16 7 7 2 3 4 2 3 3 3 2 4 4 3 4 8 5 10 7 9 28 12 17 11 7 9 10
21 22 24 23 21 20 21 22 22 19 20 16 13 12 12 16 19 19 16 15 15 8 15 10 5 4 14 23 21 8 7 8 4 4 3 3 4 2 3 5 9 6 15 5 1 7 18 28 28 23 25 21 19 16
23 23 23 23 23 22 22 21 21 19 18 19 13 13 13 13 17 19 20 19 14 6 5 5 8 11 11 12 18 29 23 10 7 6 3 3 2 8 3 6 10 9 3 6 13 18 26 36 42 36 31 25 19 17
23 23 24 24 22 22 21 20 20 21 19 17 16 12 14 13 14 17 20 20 9 6 4 10 21 21 15 16 16 17 26 25 11 4 5 3 5 5 9 8 16 22 20 12 11 12 18 12 6 9 10 12 13 14
19 19 20 21 23 24 22 20 20 21 20 18 16 15 12 14 13 14 7 2 3 3 6 4 7 11 9 7 10 13 13 12 11 6 5 7 8 3 4 4 9 21 30 36 29 30 26 24 21 14 13 15 16 19
18 18 17 17 18 17 17 17 17 17 18 14 13 13 14 15 15 11 7 7 13 8 4 7 5 3 2 3 5 7 10 6 9 5 6 5 3 6 3 10 25 15 24 28 32 30 28 28 20 19 19 17 18 17
13 14 14 15 15 15 14 14 14 15 14 12 13 13 13 16 17 19 21 21 20 7 6 3 4 4 5 4 3 5 5 7 8 6 4 5 4 6 7 28 29 28 29 34 40 35 31 25 16 14 16 20 23 23
14 12 11 12 13 13 12 12 12 13 13 14 15 14 13 16 13 17 20 13 15 13 5 5 3 3 7 3 3 5 5 3 5 4 5 7 4 8 13 21 26 26 16 15 15 14 21 26 25 25 22 19 21 21
17 17 16 15 14 13 12 11 12 11 10 10 9 3 4 5 13 14 9 4 9 9 7 4 7 3 5 6 5 5 5 3 3 5 4 4 6 45 44 41 42 39 31 26 26 23 17 20 19 16 17 15 16 14
18 18 18 17 16 14 12 11 10 8 6 4 3 5 7 8 7 6 5 6 7 4 8 7 7 5 5 3 3 7 3 3 3 3 3 3 4 9 10 17 23 24 22 30 35 28 17 14 11 14 15 15 14 12
19 17 17 17 17 15 13 11 9 8 5 4 3 6 7 4 6 4 3 4 4 4 7 6 7 10 5 8 4 5 3 2 5 7 3 4 5 14 21 30 28 22 20 21 22 29 27 22 18 16 15 14 12 12
19 18 17 15 15 15 14 12 10 12 11 7 4 4 4 6 5 5 5 4 4 7 10 8 3 6 4 6 4 2 4 5 1 3 4 6 14 26 25 31 26 18 14 8 13 19 23 25 22 17 14 13 13 14
21 20 18 17 15 15 14 15 13 14 9 7 6 5 6 6 6 6 4 3 6 7 15 13 6 5 4 2 2 4 3 1 3 4 7 3 14 17 21 28 23 16 11 9 7 9 11 15 16 15 14 14 15 14
24 23 21 20 19 17 16 17 17 17 13 8 6 6 10 13 9 8 14 6 4 9 17 7 3 6 2 3 4 3 3 5 6 5 4 7 11 25 30 27 29 23 17 19 17 18 17 18 19 17 15 15 16 15
25 23 27 24 22 19 17 18 20 20 8 10 10 8 8 4 7 9 11 11 9 13 8 3 3 3 6 4 5 8 3 7 5 4 14 16 20 33 42 34 25 25 25 27 27 27 27 25 24 21 17 19 18 16
25 30 30 26 23 21 19 21 16 12 10 8 11 25 26 14 10 13 14 13 14 17 3 5 6 10 1 4 5 4 5 5 15 32 37 36 39 42 45 33 22 29 40 40 41 38 38 34 28 27 26 25 21 19
33 33 29 26 20 19 22 23 14 9 9 14 10 30 23 21 23 25 27 15 15 15 9 6 6 5 7 7 11 8 20 31 44 47 44 44 42 39 34 38 38 38 38 38 41 39 37 35 35 34 31 28 25 24
33 34 32 30 26 26 12 15 16 7 19 23 30 31 28 30 27 25 22 22 27 26 9 6 7 9 12 18 22 34 37 37 38 41 44 49 45 45 45 41 38 37 39 41 43 39 35 34 34 34 34 33 32 29
34 34 35 34 31 19 11 10 15 11 10 24 28 31 30 26 32 30 32 34 33 23 12 8 10 25 26 31 34 41 43 43 41 41 43 42 42 43 43 43 43 45 45 45 43 40 39 38 37 36 34 34 34 33
33 37 37 37 38 35 13 9 11 9 11 12 23 28 22 24 29 32 36 38 27 30 15 31 40 47 47 51 50 45 44 47 45 44 43 47 52 44 44 47 47 44 44 43 42 42 39 42 41 40 39 37 38 39
37 36 38 38 26 15 15 16 9 10 10 9 5 13 12 18 26 31 34 24 30 35 35 41 46 48 47 43 47 48 50 50 51 46 47 49 47 48 44 42 40 40 41 41 41 41 43 42 40 39 41 37 35 38
33 33 28 21 13 12 5 16 12 10 5 5 8 6 7 14 27 30 13 19 31 36 44 47 48 47 46 53 56 57 55 53 43 48 52 43 42 44 43 43 41 40 43 44 40 39 40 37 36 37 37 36 35 37
32 22 13 13 14 5 10 10 10 7 9 4 3 5 6 12 22 10 8 23 39 45 39 38 39 40 42 45 47 49 56 39 38 45 42 36 41 44 40 40 38 37 38 39 38 38 38 38 35 33 33 34 38 35
10 9 10 7 11 7 7 6 5 4 6 7 8 6 4 8 3 5 8 27 40 35 36 40 40 41 41 46 49 47 49 38 40 40 38 35 35 36 38 39 39 37 36 36 36 35 35 33 32 32 32 34 30 28
7 9 8 9 8 7 7 7 8 9 6 6 7 5 9 5 12 11 14 30 27 34 43 40 36 35 30 36 39 41 44 34 31 30 31 29 29 30 29 30 35 36 30 26 25 26 27 27 27 27 27 26 24 24
6 5 10 13 11 8 4 8 15 4 7 7 4 5 4 6 7 12 23 21 30 35 37 34 28 28 32 39 38 38 34 26 26 30 31 29 29 30 30 33 38 38 37 35 33 31 29 27 27 27 23 20 19 17
7 14 9 14 9 16 7 4 6 7 5 8 4 6 7 8 15 32 31 38 44 40 36 34 29 35 41 44 35 33 30 31 33 34 34 34 35 35 33 34 26 30 31 31 31 32 28 24 24 22 18 16 15 14
10 16 18 7 12 7 9 8 7 15 25 23 9 13 16 37 44 39 44 44 42 45 46 47 50 51 49 41 38 37 38 40 36 35 36 38 40 39 33 29 25 24 26 27 23 20 19 20 20 17 16 15 12 11
16 28 12 8 6 8 15 19 23 34 33 36 38 36 37 45 51 50 46 46 47 50 53 53 55 49 49 48 47 50 49 49 44 41 39 36 32 30 28 24 23 23 21 21 16 15 16 15 14 13 11 9 9 9
17 20 11 15 13 33 37 38 37 38 36 36 36 32 42 44 46 48 43 45 43 43 48 52 50 51 50 51 49 49 50 44 40 34 30 30 30 28 27 25 22 19 15 16 13 12 9 8 8 6 6 7 7 7
18 20 12 12 14 35 29 24 23 27 30 31 33 34 37 31 35 47 41 37 41 45 49 49 52 55 49 46 44 43 43 40 37 35 32 29 27 24 24 23 19 17 13 15 13 8 6 8 8 7 7 7 7 9
9 16 14 11 10 5 13 12 7 7 12 17 25 31 34 35 26 40 40 39 40 43 43 42 40 40 41 42 40 37 35 32 29 28 26 24 23 25 25 23 20 18 15 16 10 9 10 9 7 7 7 8 9 11

GFSWCAN_850_spd_117.txt.gz
Wind_Speed
17 14 11 13 12 12 12 15 18 18 17 15 14 13 13 14 15 16 13 13 10 4 13 9 8 9 5 4 3 2 2 1 2 2 3 3 3 4 2 4 6 8 6 5 4 5 10 7 4 7 7 4 11 10
21 18 16 16 16 15 15 17 21 19 19 17 13 12 13 12 14 15 14 14 14 10 11 19 20 18 18 15 5 6 3 3 7 2 2 1 2 2 3 4 1 2 7 5 11 9 10 20 14 15 9 9 12 13
22 21 19 17 18 18 18 18 19 22 19 17 14 12 11 11 11 13 15 16 18 9 14 7 3 3 9 19 19 8 7 9 7 7 4 2 4 3 3 5 4 4 14 5 2 10 25 29 33 32 24 23 21 23
22 21 19 19 19 19 18 18 18 19 19 17 16 13 12 12 11 13 15 17 17 6 4 3 5 13 12 12 15 25 22 9 5 5 4 3 3 7 4 6 5 9 3 4 13 21 23 32 32 31 32 29 34 33
21 21 21 20 20 20 20 18 19 18 19 17 15 14 13 11 12 13 16 18 8 4 3 10 21 18 10 11 16 16 22 25 12 3 3 3 5 3 6 4 13 18 10 8 11 21 19 26 28 18 15 16 15 16
19 19 19 20 20 20 19 18 18 20 20 20 17 13 13 10 11 11 5 0 4 5 7 4 8 11 12 10 10 12 12 13 13 5 5 7 7 5 3 4 9 19 24 32 28 34 34 35 35 27 23 23 20 19
16 17 17 17 16 16 16 16 17 16 15 15 14 11 10 9 11 10 6 3 9 14 3 6 7 4 3 2 3 5 8 7 8 5 6 5 4 7 3 5 4 6 15 19 25 28 29 36 27 26 21 21 20 21
12 11 11 12 13 14 14 13 14 13 12 12 12 12 12 13 14 15 18 17 16 7 5 2 5 5 3 1 2 2 3 5 6 5 3 4 4 6 6 23 23 28 27 29 29 27 34 36 36 37 29 21 19 22
13 13 11 9 8 9 9 10 11 10 9 11 11 11 10 8 5 7 13 12 13 10 4 5 2 3 4 1 1 3 3 3 4 4 4 4 2 6 11 12 24 33 28 36 40 36 32 32 28 24 22 22 26 27
14 14 13 11 10 9 10 9 9 8 8 8 8 4 3 4 7 8 5 4 7 6 5 6 7 2 5 4 2 2 4 2 3 4 4 3 3 49 37 45 37 29 32 31 36 32 28 27 27 25 23 21 20 21
15 15 14 14 13 12 11 9 7 6 4 3 3 4 5 5 4 3 3 4 5 4 7 5 7 4 7 3 3 5 2 2 3 2 3 2 4 6 7 18 28 28 22 22 24 28 28 26 24 17 14 18 19 19
17 16 15 15 15 14 12 9 9 8 5 3 3 4 4 2 4 2 3 4 5 4 7 6 7 8 4 7 4 4 3 1 5 5 2 3 5 15 16 24 34 29 24 24 22 20 15 13 17 21 25 24 20 17
18 18 16 15 14 14 13 12 10 9 9 5 4 3 2 4 4 5 6 4 3 6 9 8 4 6 5 6 3 2 3 4 2 2 4 7 12 13 17 30 42 39 30 25 25 22 17 15 17 22 26 26 21 19
21 19 19 16 15 14 13 12 13 11 7 5 4 4 5 5 5 6 4 3 5 5 14 14 5 4 4 3 4 3 3 2 3 4 8 4 14 3 21 33 37 40 35 26 27 26 27 25 24 24 25 23 23 22
24 23 21 20 17 16 14 14 16 16 9 6 7 6 9 12 10 8 14 10 2 6 15 7 3 4 2 2 4 2 3 5 6 6 4 5 2 19 33 40 36 42 39 33 31 33 34 34 35 36 32 28 27 26
24 24 26 23 21 19 16 17 19 20 7 8 10 7 9 4 8 8 8 7 7 8 9 2 3 2 5 4 6 8 4 8 5 4 15 18 38 46 43 46 43 46 38 37 39 41 41 38 35 36 35 32 31 31
25 29 28 26 25 23 20 21 18 12 8 8 11 17 17 5 7 9 7 4 7 14 3 4 5 11 1 4 5 5 6 5 21 33 32 43 44 55 57 52 53 50 46 42 41 37 38 40 40 41 40 35 31 33
30 29 28 26 23 24 25 26 15 11 11 14 7 27 21 19 20 21 22 18 15 19 12 7 10 7 9 8 14 9 23 33 31 36 43 53 49 50 52 50 50 50 46 42 43 42 41 41 44 45 44 37 32 30
30 29 29 26 24 27 12 16 19 10 21 19 31 35 28 25 26 29 26 22 24 26 19 8 7 6 10 15 21 28 32 34 36 38 39 45 46 49 51 50 50 47 47 49 47 45 46 45 43 45 44 40 37 31
28 29 29 28 27 22 10 10 15 14 11 21 30 33 31 28 34 32 34 34 29 25 16 10 16 33 36 43 41 41 39 40 41 44 46 45 44 47 46 46 45 46 49 49 50 50 50 48 45 42 39 38 40 40
27 31 29 30 33 40 15 8 11 11 11 11 28 33 23 19 21 30 34 30 19 20 17 30 38 42 46 49 49 47 45 45 47 45 42 44 52 50 50 50 47 46 43 44 43 44 43 47 47 44 40 39 39 37
33 29 32 31 28 17 21 19 8 12 11 9 10 18 11 16 25 29 26 17 15 30 35 41 43 42 44 45 47 50 50 49 48 46 44 46 46 47 51 45 43 43 46 45 41 43 47 44 41 40 38 37 34 34
30 28 27 26 17 13 9 19 13 17 6 8 9 6 6 9 16 20 11 22 30 38 41 39 45 48 48 51 52 54 55 50 47 46 50 49 43 49 48 46 43 43 46 44 40 39 41 40 38 37 36 34 34 34
28 22 15 11 20 7 9 9 12 11 10 4 3 5 3 11 9 11 6 25 35 37 37 42 46 44 41 40 45 48 52 41 38 44 45 39 42 48 42 45 44 41 38 35 33 35 36 37 36 35 33 33 33 33
11 14 12 7 13 8 6 6 5 3 6 8 7 4 3 9 3 4 8 18 29 33 38 44 38 35 36 42 43 44 42 37 34 36 49 40 38 42 44 42 39 36 35 32 35 33 32 30 28 28 27 27 28 30
11 16 7 11 9 6 6 6 9 9 5 4 6 5 10 4 4 6 5 26 29 34 38 40 36 34 34 34 35 33 31 35 37 33 38 39 38 39 39 38 39 41 35 34 33 33 33 33 31 33 30 27 26 27
5 5 6 8 8 6 5 7 8 4 6 7 4 4 4 5 7 6 26 34 37 39 36 35 35 33 37 40 34 36 41 38 35 36 39 37 32 34 37 39 42 40 41 41 37 36 34 31 31 31 27 24 23 17
8 12 9 15 9 14 5 2 5 7 5 9 4 6 9 9 12 31 38 41 39 40 36 40 48 46 43 43 47 45 43 43 43 36 38 37 36 38 36 35 32 29 28 27 27 27 24 29 29 22 22 19 17 13
7 9 15 6 6 6 11 8 7 16 25 22 8 12 16 39 46 42 41 44 45 43 44 46 51 45 43 45 48 47 44 42 38 39 41 43 43 38 29 23 23 26 27 23 19 20 19 23 18 19 18 17 16 15
12 24 11 6 7 8 17 23 23 32 33 35 37 36 37 43 47 45 43 43 44 46 50 52 50 44 48 45 46 48 48 45 40 39 40 39 38 31 22 23 25 27 26 19 18 16 15 17 12 11 11 8 6 10
8 18 10 12 7 27 38 38 31 31 33 36 38 33 38 41 45 42 39 41 42 45 46 48 54 56 45 45 45 41 45 40 38 35 33 33 34 32 29 26 25 27 24 20 18 15 13 11 8 5 6 6 10 8
16 18 8 6 11 34 26 22 21 22 28 25 30 34 36 33 32 43 47 43 44 48 53 52 50 50 45 44 42 39 37 37 34 32 30 30 29 26 25 23 22 24 21 19 17 16 12 9 8 8 10 9 6 6
8 15 20 16 6 6 17 7 3 6 14 17 27 36 37 33 23 40 42 41 43 45 47 50 49 47 44 36 32 33 33 34 32 29 28 29 29 27 26 24 22 22 21 19 18 16 13 14 12 10 9 8 9 10

GFSWCAN_850_spd_120.txt.gz
Wind_Speed
13 14 12 11 11 11 11 12 14 17 18 18 16 14 12 10 10 10 9 10 9 4 10 8 8 7 5 4 2 1 2 2 2 2 3 3 4 4 2 4 6 8 7 4 4 4 10 13 6 9 6 5 8 11
20 19 18 15 14 14 15 15 17 18 20 19 19 16 13 12 11 10 10 12 14 8 8 13 15 15 14 13 5 5 3 1 5 2 2 1 3 2 3 3 2 3 7 5 11 8 8 16 12 15 20 20 21 19
23 21 20 19 18 17 17 18 17 17 18 21 18 17 17 13 12 12 13 13 15 8 13 4 3 5 7 15 17 7 6 8 5 5 2 2 4 3 3 5 3 4 10 5 1 10 23 29 33 36 37 37 39 34
23 23 21 22 20 18 17 18 17 17 17 18 17 16 17 15 12 13 15 16 15 7 5 3 2 6 11 11 13 20 22 10 4 5 3 2 2 5 3 5 4 7 2 4 10 22 26 29 28 27 29 30 31 27
27 26 24 22 21 21 20 20 19 19 19 19 17 18 17 15 11 14 16 19 10 4 3 9 19 19 10 7 13 17 17 20 13 4 3 3 4 2 5 4 8 13 7 5 7 15 14 26 35 33 31 26 26 29
19 18 19 20 20 19 19 19 20 19 18 18 18 18 16 13 7 10 6 0 6 6 6 3 7 11 10 8 7 9 10 9 9 6 4 5 4 3 3 4 9 15 19 24 21 30 33 41 41 43 41 38 36 31
13 13 14 15 16 17 17 17 16 15 15 15 16 14 12 11 9 9 5 3 5 7 3 7 6 4 3 2 2 2 4 4 5 4 6 4 3 6 3 6 4 8 22 38 36 39 32 28 27 36 34 32 27 27
10 11 13 14 14 15 15 14 13 12 12 12 12 13 12 13 14 13 18 18 13 4 5 2 5 5 3 1 3 4 3 4 6 3 2 4 2 5 5 13 22 29 32 35 27 35 38 39 40 38 32 34 29 28
14 14 14 12 10 10 10 10 10 10 10 10 11 11 12 9 6 8 8 9 10 8 4 5 3 3 2 2 2 3 3 2 1 3 3 5 2 6 9 12 25 34 27 35 34 33 31 31 32 28 24 24 24 24
13 14 13 13 12 10 10 9 8 8 7 7 8 4 3 4 7 7 3 3 6 7 6 5 4 3 3 1 2 2 2 1 2 3 5 2 5 27 30 20 14 20 24 23 24 32 36 38 32 27 20 23 16 21
13 13 14 14 14 13 12 10 9 7 7 5 4 4 4 5 5 3 2 3 4 3 6 5 8 2 5 2 2 3 2 1 2 3 3 2 4 6 1 6 13 21 27 25 21 23 23 23 23 20 19 20 24 27
14 13 13 14 13 13 12 10 9 10 5 3 3 5 5 4 6 3 3 4 5 4 6 6 6 9 3 5 3 3 2 2 4 7 2 3 5 12 2 16 28 32 31 35 33 28 26 25 26 24 24 28 29 29
15 14 15 15 13 13 13 12 11 11 9 6 4 4 3 4 5 5 7 4 3 6 9 8 4 6 4 5 3 2 3 4 5 3 4 7 3 13 3 17 29 27 27 33 38 34 31 33 33 29 25 25 28 32
17 16 17 15 14 14 13 12 13 13 7 4 4 5 6 5 5 5 3 3 4 3 12 13 6 3 4 3 3 3 4 2 3 4 8 3 12 6 6 28 39 42 34 39 45 40 39 39 38 33 30 28 28 31
20 20 19 18 16 15 14 14 16 16 10 6 6 6 6 9 8 2 4 6 4 3 12 6 3 3 2 2 4 2 4 6 6 6 3 2 4 19 31 34 38 37 40 46 47 46 42 37 38 42 36 31 31 35
21 21 24 21 19 18 17 16 17 19 6 7 10 7 7 5 9 9 10 6 5 11 8 3 3 2 5 3 5 9 4 8 5 4 9 18 34 38 45 46 42 42 45 49 49 46 43 39 38 44 44 40 39 40
19 25 24 21 21 21 21 22 18 13 10 8 9 16 13 4 10 10 6 3 12 12 3 3 4 10 1 4 5 4 5 4 20 28 34 42 44 53 51 50 48 53 59 53 52 50 48 46 47 47 47 43 41 42
25 24 23 22 20 20 25 28 14 10 11 15 9 23 23 21 23 23 22 18 13 14 12 7 8 5 7 6 12 9 24 34 38 39 42 46 41 45 48 50 52 57 55 54 50 49 50 50 46 49 50 48 44 42
25 25 25 22 18 21 10 11 17 10 20 14 31 27 16 22 29 33 30 27 24 22 18 7 5 5 10 20 24 27 29 31 33 39 44 49 47 46 46 48 51 51 48 46 48 52 51 48 46 44 42 40 40 38
24 24 24 23 20 17 8 10 12 8 11 18 27 33 29 29 36 30 31 30 23 20 12 6 11 29 33 40 42 41 44 44 41 40 43 44 41 42 44 43 46 45 44 47 49 43 41 45 46 45 42 39 38 37
22 25 23 22 24 25 12 10 8 5 6 10 28 35 19 23 30 34 33 26 19 11 8 24 36 41 42 43 47 47 45 45 44 45 44 42 45 46 46 47 47 43 39 41 42 42 42 41 43 41 38 37 34 33
28 25 24 24 17 11 15 15 8 7 10 8 8 19 10 15 26 31 25 17 13 28 33 38 36 39 46 44 50 50 49 48 47 45 46 46 45 44 46 45 43 41 42 45 41 41 42 39 34 33 34 35 33 33
25 25 22 19 12 14 9 25 17 14 6 6 10 4 4 9 13 15 10 15 24 39 43 35 45 46 47 52 50 50 52 51 46 46 46 45 44 45 47 47 42 40 44 47 40 41 41 40 38 35 32 33 31 32
28 17 11 11 19 7 11 11 12 12 10 4 3 4 4 9 13 12 5 22 40 39 35 40 42 45 44 39 41 45 48 43 37 38 40 40 38 46 42 42 39 43 42 41 41 40 41 41 40 37 32 31 33 33
10 10 10 7 14 9 7 6 5 3 6 7 10 7 4 11 4 5 5 13 27 32 42 42 42 42 37 45 42 40 40 35 36 38 40 32 32 42 41 37 36 36 34 34 37 38 37 36 35 33 30 33 31 32
13 21 11 12 9 7 7 9 10 11 3 2 6 5 10 4 4 6 5 27 38 42 41 39 39 38 37 37 37 39 36 33 34 36 45 42 41 35 39 39 42 44 34 35 37 39 40 38 37 34 31 32 29 26
6 6 10 14 10 6 4 3 6 4 7 8 4 5 4 5 6 5 28 35 38 39 35 34 34 35 35 38 39 37 42 43 42 43 45 44 44 41 42 44 47 43 38 39 38 35 35 34 33 29 27 28 20 18
9 11 8 10 10 16 4 3 6 8 5 8 3 7 9 10 9 27 25 28 27 30 33 34 34 34 39 45 46 46 45 46 44 43 45 44 41 41 38 35 36 31 26 23 23 24 27 26 23 21 22 18 17 19
9 11 17 8 4 6 10 9 8 16 26 24 8 10 10 33 38 37 40 43 41 38 37 38 40 44 48 49 49 46 48 46 38 39 42 44 45 43 33 30 25 24 23 25 26 26 25 21 19 19 13 15 16 16
12 17 9 7 7 8 19 24 27 36 34 36 36 32 34 37 44 47 44 44 44 44 46 45 46 48 49 46 49 51 47 41 37 39 40 38 39 33 30 28 27 25 24 27 29 25 21 19 17 15 10 9 7 9
8 20 10 13 9 31 40 40 39 37 35 34 35 29 33 40 42 44 43 48 50 49 45 48 51 51 47 49 41 38 46 40 36 33 31 33 33 33 32 29 25 22 23 25 25 21 19 18 16 13 10 8 9 11
14 19 6 5 10 35 29 22 14 14 26 27 29 33 30 24 24 34 50 40 37 41 46 46 47 48 45 43 42 40 41 42 38 32 31 31 31 30 29 26 23 22 22 23 21 19 18 16 15 12 10 10 8 8
10 11 13 10 6 7 12 8 6 7 16 17 25 30 31 27 16 41 47 42 39 41 44 45 44 43 40 40 40 39 38 36 31 28 27 28 30 33 33 29 24 23 23 22 21 19 17 15 15 14 12 9 7 6

GFSWCAN_850_spd_123.txt.gz
Wind_Speed
17 15 14 12 11 11 10 10 10 12 15 15 16 17 17 16 14 13 12 13 12 7 10 8 7 6 4 4 3 5 3 2 2 3 3 3 3 3 2 3 5 7 6 4 4 4 9 9 7 6 4 6 10 20
18 16 15 14 14 13 12 12 13 16 16 17 17 18 18 18 17 15 12 14 15 10 9 13 13 14 15 8 4 6 3 3 7 3 1 2 3 2 4 3 2 3 6 5 10 8 6 8 16 15 22 27 36 39
22 21 19 18 18 18 17 16 16 18 16 15 17 16 17 18 19 17 15 16 18 10 15 8 3 8 13 19 15 5 4 5 5 4 5 2 5 4 3 5 2 4 7 4 0 7 18 24 31 32 29 29 32 32
26 24 22 21 18 19 21 18 17 17 17 17 16 16 15 17 18 17 13 13 15 8 5 4 3 4 5 8 11 18 19 5 3 4 4 2 3 7 3 3 4 7 3 4 7 18 18 17 23 29 34 43 42 38
31 28 26 23 22 20 19 19 18 18 18 16 17 18 17 16 15 14 12 17 15 7 4 11 18 19 12 8 10 14 16 18 11 3 2 3 4 2 3 1 4 9 6 5 6 8 8 24 43 46 39 33 34 37
33 32 30 28 25 23 20 18 17 17 17 16 15 14 13 13 12 10 5 3 5 3 6 4 7 8 9 7 6 7 8 9 8 6 5 5 4 3 2 3 9 13 14 16 8 24 37 39 33 31 33 40 38 33
24 22 20 21 20 19 17 16 16 15 14 14 13 11 11 10 9 5 4 4 5 5 3 6 6 3 1 1 3 4 7 5 6 4 4 3 3 5 2 4 5 7 18 27 27 25 24 27 31 32 29 27 26 24
18 16 14 12 10 11 13 13 13 13 12 11 11 9 9 10 11 10 14 15 13 6 4 3 5 3 0 1 1 4 4 5 6 3 3 4 3 4 4 14 20 18 22 17 20 21 21 21 25 28 23 20 24 21
11 10 9 9 10 10 11 10 10 9 9 10 9 8 8 9 4 4 6 7 8 9 3 5 2 3 3 1 1 1 2 2 3 4 4 4 2 5 7 11 14 16 15 19 22 24 28 28 29 28 24 22 23 24
10 12 12 12 11 9 8 7 7 7 6 7 5 3 2 2 3 4 3 3 6 7 7 5 3 3 2 3 2 3 3 2 2 3 4 3 4 25 24 21 12 9 13 17 23 33 34 34 34 34 33 28 24 24
11 11 12 12 12 11 10 8 7 7 6 4 3 1 2 1 3 2 2 3 4 4 6 5 12 2 5 2 1 2 1 2 2 3 3 2 4 6 10 10 7 11 13 18 25 31 33 33 34 35 36 33 32 33
12 11 11 11 12 11 11 10 8 5 3 1 1 2 3 2 3 2 3 3 4 4 5 5 7 8 3 5 3 2 2 1 5 7 1 3 5 12 16 7 12 18 20 23 27 34 34 31 35 35 33 33 33 33
12 13 13 12 11 11 11 9 8 8 6 2 3 3 2 3 3 5 6 4 3 4 7 6 3 6 4 5 2 2 3 4 4 2 4 6 4 4 11 9 18 30 28 28 34 37 39 41 38 36 38 32 31 35
14 13 13 12 12 11 10 10 11 11 6 5 5 4 5 4 5 5 4 3 3 3 10 10 4 2 3 2 3 3 3 2 3 3 7 2 4 13 16 15 30 37 36 32 33 41 42 47 47 42 37 36 39 42
16 16 16 14 13 12 12 11 13 14 8 5 5 5 6 9 6 3 4 4 4 3 10 4 2 3 1 1 4 2 3 6 4 5 3 2 7 29 34 34 38 34 37 43 48 54 55 54 51 49 44 41 42 45
18 18 20 17 16 15 14 13 15 17 6 6 9 5 7 3 4 10 10 7 3 10 8 3 3 2 4 4 5 7 4 7 5 3 6 22 36 40 43 41 43 45 52 59 56 49 50 51 48 49 49 49 46 39
17 20 18 17 17 16 18 20 16 10 9 8 9 17 13 8 9 9 8 9 16 13 3 4 5 11 0 3 4 4 5 4 19 26 35 43 42 44 48 55 54 51 53 52 49 50 55 50 48 50 52 49 42 40
23 21 18 16 13 14 19 23 12 11 12 17 9 19 24 22 24 26 25 21 16 15 9 6 4 3 4 5 9 10 26 38 40 39 42 46 45 49 48 49 51 51 48 49 50 54 51 51 46 47 47 47 46 43
22 21 19 16 14 17 8 7 12 6 19 9 24 20 19 27 31 33 29 24 24 24 15 6 4 4 7 14 22 33 34 32 36 41 39 44 45 45 47 46 47 48 49 48 47 49 51 50 49 48 47 44 42 41
21 20 19 18 17 12 6 8 12 8 7 9 19 27 24 23 32 32 34 31 27 23 13 6 9 27 27 36 40 39 42 42 38 37 42 44 40 41 42 43 46 48 47 45 45 45 42 44 46 40 42 41 38 38
19 21 20 18 18 20 9 7 6 5 4 8 17 24 14 18 27 31 33 27 22 14 15 27 32 39 49 49 46 43 41 43 44 44 39 38 43 42 45 46 45 42 42 43 41 40 43 44 45 45 41 41 39 38
22 20 19 19 13 8 10 11 6 4 7 12 17 14 7 9 20 24 22 17 17 34 32 34 39 43 43 48 54 51 50 52 49 44 48 45 40 40 43 46 42 41 44 45 42 42 48 49 44 42 42 43 42 41
20 14 13 11 10 10 7 18 12 11 4 8 10 4 5 7 13 16 11 21 30 37 40 42 49 51 50 51 45 48 52 43 40 46 44 41 40 41 44 48 44 42 48 50 42 41 45 43 41 40 41 40 39 38
21 14 10 10 19 7 9 11 10 8 10 6 4 6 6 11 15 12 6 23 40 42 35 41 46 46 44 42 46 49 48 44 39 39 37 36 40 43 42 45 46 45 45 46 38 38 38 38 36 36 37 37 37 36
10 11 11 7 13 10 7 6 6 4 8 7 7 6 5 11 4 5 4 22 38 35 42 46 45 39 38 44 46 45 44 39 35 36 35 35 37 42 45 47 46 44 42 41 41 41 41 40 39 40 40 39 37 35
8 14 11 11 6 8 7 6 8 8 4 4 9 9 10 4 6 7 8 43 39 40 47 43 38 37 38 43 41 38 35 31 31 35 40 40 38 37 41 44 44 54 37 37 37 40 42 40 39 37 35 35 31 27
5 7 10 12 9 4 4 4 6 3 6 7 4 4 4 6 9 6 35 34 37 45 46 43 41 40 41 38 35 36 36 37 38 41 43 41 40 42 43 43 45 49 45 40 38 37 35 32 30 31 33 30 26 22
12 11 8 14 12 20 8 6 6 7 5 11 3 7 7 8 8 30 32 32 31 31 31 31 33 30 30 36 38 40 41 42 46 45 45 45 46 45 41 38 37 33 29 25 25 25 26 26 29 31 30 27 24 20
11 18 13 6 7 7 11 7 7 17 31 23 10 14 14 36 41 38 40 41 42 40 37 39 42 43 43 47 50 50 48 49 46 44 43 45 48 45 33 29 27 26 25 25 24 26 27 27 28 28 26 22 20 17
13 17 12 7 7 8 22 25 33 43 33 34 34 34 36 41 48 45 43 44 44 46 48 50 52 53 52 46 47 51 52 48 44 41 39 45 47 37 30 28 29 27 26 25 25 25 23 24 24 22 20 18 15 12
9 17 10 15 12 35 45 40 37 38 39 39 40 35 39 44 46 47 47 51 49 49 52 54 56 54 48 49 48 45 48 42 39 38 36 33 32 33 32 30 30 27 26 25 23 24 23 22 21 18 17 15 11 12
12 17 9 5 15 34 29 28 18 20 29 30 35 34 34 30 32 51 50 40 42 46 51 50 47 46 45 44 43 41 39 38 37 36 36 35 36 33 28 28 28 28 27 26 25 25 25 21 19 18 16 12 12 12
10 12 13 9 7 7 14 8 7 7 13 17 24 29 31 25 15 39 41 34 35 40 42 43 44 42 36 37 36 33 31 29 28 28 26 25 24 24 25 28 29 26 25 26 24 23 23 20 17 15 13 12 11 9

GFSWCAN_850_spd_126.txt.gz
Wind_Speed
21 19 17 15 13 12 10 8 7 8 9 11 12 13 14 14 15 15 13 12 10 4 10 6 6 6 4 4 3 2 2 2 2 2 3 3 3 4 2 4 6 7 7 5 4 5 9 10 6 5 3 12 24 31
20 19 17 16 15 12 10 9 8 9 11 11 12 13 14 14 15 15 13 14 14 7 8 15 16 14 13 8 3 7 2 4 6 3 1 1 3 1 3 3 0 3 6 5 9 7 5 8 9 10 23 27 28 32
23 21 18 16 15 14 13 13 13 12 13 12 12 13 14 16 17 16 12 12 14 7 10 3 2 5 12 17 15 5 4 5 4 4 5 2 5 4 3 5 2 4 6 3 1 2 5 19 16 17 31 34 39 36
27 23 22 20 18 16 16 17 17 16 13 13 13 13 13 15 17 15 13 10 9 6 4 1 3 3 4 4 8 19 17 7 5 5 5 3 3 5 3 2 3 4 6 3 6 13 14 5 30 40 39 35 33 33
31 28 26 24 22 22 20 19 20 18 16 16 16 15 16 16 14 13 13 12 10 5 3 8 17 13 9 10 11 14 15 17 10 3 3 3 3 2 2 1 4 9 6 4 5 1 1 18 33 30 31 33 33 29
32 30 30 28 27 25 23 22 20 19 16 16 15 14 14 14 12 10 3 3 6 5 4 3 6 5 7 7 7 8 9 8 7 4 4 5 3 4 2 3 7 10 10 7 5 15 22 17 17 21 25 26 23 24
32 34 32 35 33 29 23 21 20 18 16 14 14 14 11 11 9 5 3 2 4 5 3 6 5 2 2 2 1 3 7 6 6 4 4 2 2 4 2 3 6 2 8 16 10 10 8 14 16 22 23 24 23 21
35 35 33 27 24 18 14 11 11 10 11 11 11 10 8 7 9 7 11 11 8 6 4 3 4 2 2 1 1 2 3 5 5 3 3 4 3 4 5 13 15 11 10 9 14 12 11 15 19 24 27 29 31 32
22 21 22 18 15 12 9 8 7 6 8 8 7 7 7 6 4 3 3 3 6 9 4 4 2 3 3 2 1 1 2 1 2 3 3 5 2 5 7 7 3 7 5 9 17 22 25 27 29 32 34 35 33 34
17 15 14 13 11 9 7 7 6 6 5 4 4 3 1 1 1 2 1 2 4 6 7 5 4 3 3 2 2 3 2 1 1 3 4 2 4 24 17 13 4 4 5 11 21 30 33 35 35 36 35 36 37 36
7 6 7 8 9 9 10 9 7 5 4 4 4 2 3 4 2 1 2 3 4 3 5 5 11 2 4 2 2 3 1 2 1 2 2 2 4 5 4 12 11 10 13 11 13 15 18 22 28 34 38 39 39 39
8 9 9 9 9 9 9 8 8 6 5 5 4 4 3 1 3 2 3 3 4 4 4 3 4 7 3 4 1 2 1 1 4 5 2 3 3 6 10 15 5 14 27 22 20 22 26 28 35 36 38 40 40 39
10 8 8 8 8 8 8 8 8 8 8 7 3 3 2 3 3 5 5 4 2 4 6 5 2 4 4 5 2 1 3 3 3 1 3 5 4 12 15 8 17 26 34 38 36 36 40 42 43 42 44 43 42 41
10 10 10 9 9 8 8 8 9 11 6 5 5 4 5 4 5 5 4 4 4 3 7 9 2 3 3 2 3 3 2 2 2 2 6 3 11 7 25 30 36 41 42 42 43 42 40 43 47 43 41 45 45 46
11 11 11 10 9 9 9 10 11 12 5 4 5 5 6 8 6 2 6 3 1 2 8 3 2 2 1 1 3 1 3 5 5 5 3 3 4 23 36 43 41 44 43 46 48 46 49 50 49 51 49 49 49 51
12 14 14 12 12 11 11 12 13 13 5 5 8 3 5 1 4 8 9 8 7 9 7 3 2 2 5 3 4 7 3 6 4 4 6 13 29 36 41 41 46 46 46 48 52 50 48 50 51 52 52 51 52 51
15 17 13 13 13 12 15 17 15 10 8 6 7 16 14 7 6 11 13 18 12 10 3 4 4 9 1 3 4 4 5 4 9 14 26 35 42 44 43 45 47 48 48 49 49 49 51 52 53 52 53 54 51 49
18 15 15 11 12 15 17 22 10 9 11 14 8 15 22 18 18 22 22 18 15 14 8 7 5 4 6 6 4 5 13 23 34 40 43 41 44 47 49 49 46 45 46 49 51 52 52 51 47 48 47 49 48 49
18 16 14 13 15 16 8 7 9 7 17 6 15 14 15 22 28 30 27 23 23 23 18 7 4 4 6 10 17 29 34 38 35 39 38 46 50 47 41 41 42 44 47 45 48 48 47 48 49 50 49 46 46 48
17 17 16 15 17 12 6 6 8 6 6 7 13 19 17 19 29 33 34 33 29 22 12 6 10 24 23 34 38 41 41 39 34 32 38 45 45 36 38 42 47 47 47 45 45 43 43 47 44 41 40 41 41 43
17 19 17 17 19 19 8 7 7 5 4 8 16 20 10 16 24 27 29 25 17 12 12 22 29 35 39 42 48 44 44 46 39 39 42 40 40 39 45 50 46 43 41 43 44 50 43 41 44 46 43 43 44 46
18 18 18 20 13 9 12 13 7 5 7 10 9 9 7 8 16 27 25 17 12 27 28 35 37 40 43 48 53 54 51 47 49 48 45 40 38 45 44 43 41 40 42 44 46 44 42 49 46 44 41 39 39 40
17 16 14 10 7 7 4 10 8 7 3 6 10 4 6 9 20 21 7 18 32 41 42 44 44 44 49 53 50 47 50 50 46 47 49 43 44 43 40 39 40 41 43 47 43 41 43 45 42 39 38 40 41 42
18 10 10 9 15 5 6 7 8 6 7 4 3 5 6 10 9 8 5 27 42 46 38 44 45 44 43 38 41 48 49 47 38 42 41 39 43 41 34 39 43 44 45 48 43 45 44 40 40 41 43 40 40 40
6 8 8 6 10 8 8 5 5 4 6 4 6 5 5 6 3 3 5 30 40 37 42 42 39 40 38 40 41 43 49 41 40 42 40 35 37 35 36 40 46 47 43 42 42 44 45 41 40 41 41 39 37 38
8 14 11 13 9 7 8 6 9 10 4 5 8 6 5 3 4 6 10 44 37 35 38 38 37 35 34 39 43 45 44 43 40 36 34 32 35 37 38 41 49 54 44 43 35 38 41 44 42 38 35 32 32 35
7 8 10 12 7 6 3 6 6 4 6 7 4 3 5 6 8 8 38 40 35 43 43 44 43 40 41 44 40 41 38 35 35 34 35 35 38 40 40 43 52 56 52 48 42 38 36 35 34 33 34 34 34 36
11 14 9 14 10 14 4 3 6 7 6 11 6 6 7 9 9 34 38 42 40 39 39 40 37 38 36 36 38 38 37 37 38 40 40 41 44 48 49 49 50 47 40 34 29 27 29 31 33 34 34 34 35 32
9 13 12 6 7 6 12 9 7 18 30 20 8 13 13 38 42 42 47 47 48 46 47 50 51 48 47 48 47 45 44 43 43 44 46 48 52 54 51 46 42 36 32 28 26 26 27 28 30 32 31 32 31 28
10 13 8 6 7 7 21 24 36 42 33 33 36 37 39 45 55 55 48 50 49 54 57 55 54 51 49 49 47 48 51 51 51 47 44 46 49 45 44 40 33 28 26 27 28 27 26 27 28 27 27 27 24 23
9 18 10 14 11 32 43 41 39 41 41 41 40 33 45 51 53 53 45 49 50 51 43 48 54 54 50 47 45 45 47 48 43 42 40 37 34 32 32 26 25 27 26 26 26 27 29 29 29 27 24 24 21 19
12 17 9 5 17 36 33 30 29 30 34 31 35 32 36 27 27 43 42 29 30 35 34 39 43 45 40 42 41 40 40 40 37 35 34 33 35 34 30 27 27 27 25 24 25 27 27 27 27 23 21 20 17 14
7 9 10 8 8 7 15 13 8 7 12 16 26 28 30 24 11 27 34 33 27 24 26 29 29 26 26 26 28 29 29 28 26 25 25 26 26 26 26 26 26 24 22 22 25 25 25 26 23 18 17 15 13 11

GFSWCAN_850_spd_129.txt.gz
Wind_Speed
23 22 21 19 17 15 13 11 8 7 6 4 4 6 7 9 11 11 9 9 7 4 7 6 7 6 5 5 3 6 3 1 2 2 3 3 3 3 2 4 6 7 7 5 5 5 8 6 5 2 2 14 25 26
25 25 22 21 17 17 14 12 10 8 6 5 6 7 7 8 11 12 10 9 9 4 6 9 11 12 14 9 5 9 2 4 8 3 1 1 3 1 3 3 1 3 6 5 9 7 3 5 3 7 15 22 22 26
29 27 23 21 17 16 16 14 12 10 10 9 8 8 10 11 11 12 11 9 9 4 7 5 3 5 9 17 14 5 5 7 6 6 6 2 4 4 3 5 2 4 6 3 1 0 2 7 7 22 24 24 26 24
30 28 26 22 19 17 16 16 15 14 12 11 9 10 10 10 11 13 12 11 6 3 1 2 3 4 3 6 12 20 10 6 4 5 3 2 3 8 3 2 4 5 7 4 5 8 10 4 22 22 23 23 23 22
32 31 28 25 22 20 18 16 17 16 15 13 11 11 10 10 10 10 10 9 6 4 3 4 9 12 8 11 14 11 16 18 9 4 3 4 4 2 1 1 4 12 6 4 4 3 3 12 13 15 20 24 24 25
33 32 30 28 26 24 22 20 20 19 15 13 13 10 9 10 9 7 1 3 8 6 5 3 3 3 4 5 7 8 9 9 6 5 5 5 4 4 3 3 8 8 5 2 2 9 12 6 6 14 21 24 23 24
36 34 32 31 30 29 25 25 23 19 15 14 12 10 9 9 8 3 2 4 1 2 2 6 4 2 2 1 1 2 6 4 5 3 4 3 3 5 2 3 3 5 2 1 3 2 3 7 9 15 18 22 25 28
35 34 35 34 34 31 31 29 26 21 16 12 9 8 7 8 8 6 9 9 6 5 4 2 3 3 4 4 3 3 4 4 4 2 2 2 2 3 4 7 5 1 12 11 10 10 10 11 14 20 24 28 31 34
34 37 29 38 37 36 34 27 22 18 13 10 8 6 6 7 4 4 4 4 6 6 3 4 2 3 2 2 3 3 3 2 2 2 3 3 2 5 5 5 9 8 6 4 7 8 11 15 19 24 27 29 31 33
24 25 29 28 26 21 17 18 13 11 10 9 8 6 4 3 4 2 1 3 6 6 6 4 3 2 3 3 2 2 2 2 2 3 3 2 4 14 13 7 5 10 9 8 11 17 19 23 27 28 29 31 33 35
25 21 22 20 20 18 16 15 13 12 10 9 6 4 7 7 3 2 2 3 4 3 5 4 8 2 3 1 1 3 1 2 2 1 2 2 3 5 11 11 17 6 13 14 16 17 19 23 28 32 35 36 38 38
21 21 19 17 16 14 14 14 13 12 8 8 5 7 7 4 3 2 3 3 4 4 4 3 4 6 3 6 4 5 1 2 3 5 2 3 4 3 11 17 8 13 20 23 25 27 27 27 28 30 35 39 40 40
15 13 13 13 12 12 13 13 13 11 11 9 4 4 4 3 4 6 6 4 3 5 5 5 3 3 5 5 3 2 3 3 7 3 4 4 7 12 8 7 17 21 27 32 35 34 34 36 37 37 43 46 44 45
14 14 14 12 12 12 13 13 13 15 8 4 5 4 4 3 4 4 4 3 3 4 8 9 3 4 3 3 3 3 2 4 3 4 6 3 20 8 9 18 29 31 32 35 36 39 40 42 45 47 48 49 49 52
12 13 13 13 14 14 14 13 14 16 5 4 5 5 5 6 5 3 7 3 3 3 9 5 2 3 2 2 3 2 4 5 5 5 3 5 19 6 19 29 33 33 36 38 40 40 41 42 44 49 50 51 52 51
13 13 13 13 12 12 14 15 14 12 4 5 6 2 3 1 4 6 7 9 9 6 6 2 2 2 5 3 4 7 4 6 4 4 5 9 10 19 32 33 34 37 39 39 38 38 41 43 46 48 52 51 46 45
14 12 13 13 12 12 13 18 14 9 7 5 5 11 9 3 5 7 13 11 9 11 3 4 4 9 1 3 4 4 5 4 4 9 11 18 30 41 40 37 40 41 39 36 39 41 44 46 46 46 49 49 50 50
14 13 11 13 17 16 18 17 7 8 8 9 5 13 17 14 11 11 10 10 14 10 5 5 4 4 5 4 4 4 14 25 27 33 41 44 44 41 42 44 47 41 37 39 41 44 46 47 45 47 48 50 47 49
13 13 12 14 18 19 7 6 8 5 13 5 14 12 16 16 21 21 21 20 20 20 10 4 4 4 6 11 16 28 31 33 36 39 40 43 44 48 48 44 40 35 41 43 43 45 45 43 42 43 43 42 46 48
13 13 13 14 17 12 6 5 5 4 4 6 11 12 12 14 19 22 24 26 24 13 9 5 7 23 27 36 39 42 43 44 40 38 40 40 40 42 39 36 35 43 43 43 42 43 41 43 44 43 39 41 42 42
14 14 13 15 18 14 7 6 6 5 4 8 10 12 8 14 18 21 24 22 14 8 8 22 33 39 41 43 49 47 45 45 43 42 39 38 45 41 39 40 46 40 40 40 40 42 41 42 44 44 42 39 43 43
14 14 16 17 12 10 11 11 7 7 7 6 4 5 6 7 18 25 12 15 12 30 36 38 40 43 43 46 52 53 53 49 46 44 43 42 39 42 43 46 40 40 40 38 38 41 41 42 43 43 43 44 42 43
13 12 10 9 8 8 3 9 6 8 2 4 5 3 6 7 10 11 7 17 29 39 46 45 49 51 49 52 51 50 50 48 46 46 43 42 40 42 43 42 40 38 38 35 35 37 39 41 43 42 44 44 42 42
15 8 7 7 11 3 5 4 5 4 3 3 3 4 5 7 6 7 4 20 42 42 33 40 41 41 43 43 45 51 54 51 40 43 46 41 41 41 36 35 33 32 32 34 35 37 37 43 44 43 44 41 40 38
7 9 7 5 9 7 6 5 5 3 5 5 4 4 5 6 2 3 7 28 40 36 34 35 35 37 37 43 44 44 48 41 37 37 47 41 38 37 35 32 30 31 33 33 36 40 39 43 44 43 42 38 38 41
6 11 11 14 6 8 8 6 8 8 4 5 7 6 4 3 3 7 4 29 30 33 34 33 34 33 34 37 39 42 42 39 33 32 39 36 35 34 34 33 32 36 37 38 38 40 41 42 41 39 38 38 36 36
5 8 9 10 7 7 3 4 5 3 6 7 4 3 4 5 8 7 28 32 33 38 37 36 35 35 38 40 41 41 41 40 39 37 34 34 34 33 33 33 36 43 44 45 44 42 38 36 35 35 36 38 37 36
8 12 8 14 10 10 4 2 5 7 6 10 6 4 6 8 11 34 38 43 42 42 44 46 49 48 48 50 49 47 45 43 43 42 40 38 37 37 37 41 44 46 46 42 36 32 31 31 30 32 34 36 36 33
8 13 16 7 7 6 11 8 8 19 29 18 7 10 13 38 41 43 50 48 45 45 46 50 56 51 46 48 45 46 47 47 44 41 41 43 44 44 45 43 41 39 36 32 29 28 28 27 28 31 32 34 33 32
9 15 11 8 7 9 21 24 30 41 33 30 32 34 41 49 53 52 47 49 47 46 47 44 45 46 46 43 40 41 40 39 38 38 39 40 44 42 41 38 35 33 29 26 26 26 25 26 27 28 29 30 29 27
8 21 9 12 10 30 42 41 38 40 40 43 40 33 47 56 55 56 47 44 42 43 41 41 40 36 38 39 38 38 39 31 30 30 29 29 28 28 27 26 26 23 22 24 26 26 26 26 27 28 30 28 24 22
13 17 10 5 13 32 27 26 28 28 33 31 38 34 38 31 27 37 45 28 23 25 26 28 32 29 27 28 28 27 26 26 26 26 27 29 29 26 24 23 21 22 24 26 25 24 23 25 27 28 27 24 20 18
6 8 8 6 7 7 11 8 6 7 10 12 20 27 28 18 9 25 30 29 27 27 25 25 26 25 24 21 21 23 25 27 27 26 24 23 23 21 19 18 19 22 23 22 21 21 24 26 26 25 24 19 15 12